Wetterdaten: Mittwoch, 01.03.2017
Datum Zeit Temp. Aussen Temp. o. S. +5cm Feuchte Auss BlattFeu 1 Luftdruck Regen Sonnenschein Regendauer Solar Windben Empfang
01.03.2017 00:00 2,8 C 2,2 C 1,1 C 92 % 15 lf 994,8 hPa 0,2 l/m 0 min 2 min 0 W/m 12,6 km/h (3 Bft) 93,62 %
01.03.2017 00:02 2,7 C 2,2 C 1,1 C 92 % 15 lf 994,8 hPa 0,0 l/m 0 min 2 min 0 W/m 14,6 km/h (3 Bft) 100,00 %
01.03.2017 00:05 2,7 C 2,2 C 1,1 C 93 % 15 lf 994,8 hPa 0,0 l/m 0 min 2 min 0 W/m 14,6 km/h (3 Bft) 100,00 %
01.03.2017 00:06 2,7 C 2,2 C 1,1 C 93 % 15 lf 994,8 hPa 0,0 l/m 0 min 1 min 0 W/m 16,7 km/h (3 Bft) 100,00 %
01.03.2017 00:08 2,7 C 1,7 C 1,1 C 93 % 15 lf 994,8 hPa 0,0 l/m 0 min 2 min 0 W/m 14,6 km/h (3 Bft) 100,00 %
01.03.2017 00:10 2,6 C 1,7 C 0,6 C 93 % 15 lf 994,8 hPa 0,2 l/m 0 min 2 min 0 W/m 18,8 km/h (3 Bft) 97,83 %
01.03.2017 00:12 2,6 C 1,7 C 0,6 C 93 % 15 lf 994,8 hPa 0,0 l/m 0 min 2 min 0 W/m 16,7 km/h (3 Bft) 97,87 %
01.03.2017 00:14 2,5 C 1,7 C 0,6 C 93 % 15 lf 994,8 hPa 0,2 l/m 0 min 2 min 0 W/m 14,6 km/h (3 Bft) 97,87 %
01.03.2017 00:16 2,4 C 1,7 C 0,6 C 93 % 15 lf 994,8 hPa 0,0 l/m 0 min 2 min 0 W/m 16,7 km/h (3 Bft) 100,00 %
01.03.2017 00:18 2,4 C 1,7 C 0,6 C 93 % 15 lf 994,8 hPa 0,0 l/m 0 min 2 min 0 W/m 8,4 km/h (2 Bft) 93,62 %
01.03.2017 00:20 2,3 C 1,7 C 0,6 C 93 % 15 lf 994,8 hPa 0,0 l/m 0 min 2 min 0 W/m 16,7 km/h (3 Bft) 97,87 %
01.03.2017 00:22 2,3 C 1,7 C 0,6 C 93 % 15 lf 994,9 hPa 0,0 l/m 0 min 2 min 0 W/m 12,6 km/h (3 Bft) 97,83 %
01.03.2017 00:24 2,3 C 1,7 C 0,6 C 93 % 15 lf 994,9 hPa 0,0 l/m 0 min 2 min 0 W/m 10,5 km/h (2 Bft) 97,87 %
01.03.2017 00:26 2,3 C 1,7 C 0,6 C 93 % 15 lf 994,9 hPa 0,0 l/m 0 min 2 min 0 W/m 10,5 km/h (2 Bft) 100,00 %
01.03.2017 00:28 2,2 C 1,7 C 0,6 C 93 % 15 lf 994,9 hPa 0,0 l/m 0 min 2 min 0 W/m 10,5 km/h (2 Bft) 100,00 %
01.03.2017 00:30 2,2 C 1,7 C 0,6 C 93 % 15 lf 994,9 hPa 0,0 l/m 0 min 2 min 0 W/m 10,5 km/h (2 Bft) 100,00 %
01.03.2017 00:32 2,2 C 1,7 C 0,6 C 93 % 15 lf 995,1 hPa 0,0 l/m 0 min 2 min 0 W/m 16,7 km/h (3 Bft) 97,87 %
01.03.2017 00:34 2,2 C 1,7 C 0,6 C 93 % 15 lf 995,0 hPa 0,0 l/m 0 min 2 min 0 W/m 16,7 km/h (3 Bft) 91,30 %
01.03.2017 00:36 2,1 C 1,7 C 0,6 C 93 % 15 lf 994,9 hPa 0,0 l/m 0 min 2 min 0 W/m 14,6 km/h (3 Bft) 100,00 %
01.03.2017 00:38 2,1 C 1,7 C 0,6 C 93 % 15 lf 995,0 hPa 0,0 l/m 0 min 2 min 0 W/m 18,8 km/h (3 Bft) 100,00 %
01.03.2017 00:40 2,1 C 1,7 C 0,6 C 93 % 15 lf 995,1 hPa 0,0 l/m 0 min 2 min 0 W/m 10,5 km/h (2 Bft) 95,74 %
01.03.2017 00:42 2,0 C 1,7 C 0,6 C 93 % 15 lf 995,0 hPa 0,0 l/m 0 min 2 min 0 W/m 12,6 km/h (3 Bft) 97,87 %
01.03.2017 00:44 2,0 C 1,7 C 0,6 C 93 % 15 lf 995,1 hPa 0,0 l/m 0 min 2 min 0 W/m 12,6 km/h (3 Bft) 95,74 %
01.03.2017 00:46 1,9 C 1,7 C 0,6 C 93 % 15 lf 995,0 hPa 0,0 l/m 0 min 2 min 0 W/m 16,7 km/h (3 Bft) 95,65 %
01.03.2017 00:48 1,9 C 1,7 C 0,6 C 93 % 15 lf 995,0 hPa 0,2 l/m 0 min 2 min 0 W/m 16,7 km/h (3 Bft) 95,74 %
01.03.2017 00:50 1,9 C 1,7 C 0,6 C 94 % 15 lf 995,0 hPa 0,0 l/m 0 min 2 min 0 W/m 10,5 km/h (2 Bft) 95,74 %
01.03.2017 00:52 1,9 C 1,7 C 0,6 C 94 % 15 lf 995,1 hPa 0,0 l/m 0 min 2 min 0 W/m 16,7 km/h (3 Bft) 93,62 %
01.03.2017 00:54 1,8 C 1,7 C 0,6 C 94 % 15 lf 995,1 hPa 0,0 l/m 0 min 2 min 0 W/m 10,5 km/h (2 Bft) 95,74 %
01.03.2017 00:56 1,8 C 1,7 C 0,6 C 94 % 15 lf 995,1 hPa 0,0 l/m 0 min 2 min 0 W/m 14,6 km/h (3 Bft) 95,74 %
01.03.2017 00:58 1,8 C 1,7 C 0,6 C 94 % 15 lf 995,0 hPa 0,0 l/m 0 min 2 min 0 W/m 14,6 km/h (3 Bft) 95,65 %
01.03.2017 01:00 1,8 C 1,7 C 0,6 C 94 % 15 lf 995,0 hPa 0,0 l/m 0 min 2 min 0 W/m 14,6 km/h (3 Bft) 95,74 %
01.03.2017 01:02 1,8 C 1,7 C 0,6 C 94 % 15 lf 995,0 hPa 0,0 l/m 0 min 2 min 0 W/m 16,7 km/h (3 Bft) 95,74 %
01.03.2017 01:04 1,8 C 1,7 C 0,6 C 94 % 15 lf 995,1 hPa 0,0 l/m 0 min 2 min 0 W/m 12,6 km/h (3 Bft) 93,62 %
01.03.2017 01:06 1,8 C 1,7 C 0,6 C 94 % 15 lf 995,1 hPa 0,0 l/m 0 min 2 min 0 W/m 10,5 km/h (2 Bft) 95,74 %
01.03.2017 01:08 1,8 C 1,7 C 0,6 C 94 % 15 lf 995,1 hPa 0,0 l/m 0 min 0 min 0 W/m 14,6 km/h (3 Bft) 91,49 %
01.03.2017 01:10 1,8 C 1,7 C 0,6 C 94 % 15 lf 995,1 hPa 0,0 l/m 0 min 0 min 0 W/m 16,7 km/h (3 Bft) 95,65 %
01.03.2017 01:12 1,8 C 1,7 C 0,6 C 94 % 15 lf 995,1 hPa 0,0 l/m 0 min 0 min 0 W/m 12,6 km/h (3 Bft) 93,62 %
01.03.2017 01:14 1,7 C 1,7 C 0,6 C 94 % 15 lf 995,1 hPa 0,0 l/m 0 min 0 min 0 W/m 12,6 km/h (3 Bft) 95,74 %
01.03.2017 01:16 1,8 C 1,7 C 0,6 C 94 % 15 lf 995,1 hPa 0,0 l/m 0 min 0 min 0 W/m 14,6 km/h (3 Bft) 95,74 %
01.03.2017 01:18 1,7 C 1,7 C 0,6 C 94 % 15 lf 995,0 hPa 0,0 l/m 0 min 0 min 0 W/m 12,6 km/h (3 Bft) 93,62 %
01.03.2017 01:20 1,7 C 1,7 C 0,6 C 94 % 15 lf 995,1 hPa 0,0 l/m 0 min 0 min 0 W/m 16,7 km/h (3 Bft) 97,83 %
01.03.2017 01:22 1,7 C 1,7 C 0,6 C 94 % 15 lf 995,1 hPa 0,0 l/m 0 min 0 min 0 W/m 14,6 km/h (3 Bft) 97,87 %
01.03.2017 01:24 1,7 C 1,7 C 0,6 C 94 % 15 lf 995,2 hPa 0,0 l/m 0 min 0 min 0 W/m 12,6 km/h (3 Bft) 95,74 %
01.03.2017 01:26 1,7 C 1,7 C 0,6 C 95 % 15 lf 995,2 hPa 0,0 l/m 0 min 0 min 0 W/m 12,6 km/h (3 Bft) 97,87 %
01.03.2017 01:28 1,8 C 1,7 C 0,6 C 95 % 15 lf 995,1 hPa 0,0 l/m 0 min 0 min 0 W/m 8,4 km/h (2 Bft) 100,00 %
01.03.2017 01:30 1,7 C 1,7 C 0,6 C 95 % 15 lf 995,1 hPa 0,0 l/m 0 min 0 min 0 W/m 10,5 km/h (2 Bft) 100,00 %
01.03.2017 01:32 1,7 C 1,7 C 0,6 C 95 % 15 lf 995,1 hPa 0,0 l/m 0 min 0 min 0 W/m 12,6 km/h (3 Bft) 97,83 %
01.03.2017 01:34 1,8 C 1,7 C 0,6 C 95 % 15 lf 995,0 hPa 0,0 l/m 0 min 0 min 0 W/m 8,4 km/h (2 Bft) 97,87 %
01.03.2017 01:36 1,7 C 1,7 C 0,6 C 95 % 15 lf 995,1 hPa 0,0 l/m 0 min 0 min 0 W/m 8,4 km/h (2 Bft) 95,74 %
01.03.2017 01:38 1,8 C 1,7 C 0,6 C 95 % 15 lf 995,1 hPa 0,0 l/m 0 min 0 min 0 W/m 8,4 km/h (2 Bft) 97,87 %
01.03.2017 01:40 1,8 C 1,7 C 1,1 C 95 % 15 lf 995,2 hPa 0,0 l/m 0 min 0 min 0 W/m 6,3 km/h (2 Bft) 95,74 %
01.03.2017 01:42 1,8 C 1,7 C 1,1 C 95 % 15 lf 995,2 hPa 0,0 l/m 0 min 0 min 0 W/m 8,4 km/h (2 Bft) 95,74 %
01.03.2017 01:44 1,8 C 1,7 C 1,1 C 95 % 15 lf 995,2 hPa 0,0 l/m 0 min 0 min 0 W/m 8,4 km/h (2 Bft) 95,65 %
01.03.2017 01:46 1,8 C 1,7 C 1,1 C 95 % 15 lf 995,1 hPa 0,0 l/m 0 min 0 min 0 W/m 6,3 km/h (2 Bft) 95,74 %
01.03.2017 01:48 1,8 C 2,2 C 1,1 C 95 % 15 lf 995,2 hPa 0,0 l/m 0 min 0 min 0 W/m 4,2 km/h (1 Bft) 95,74 %
01.03.2017 01:50 1,8 C 2,2 C 1,1 C 95 % 15 lf 995,2 hPa 0,0 l/m 0 min 0 min 0 W/m 4,2 km/h (1 Bft) 95,74 %
01.03.2017 01:52 1,8 C 2,2 C 1,1 C 95 % 15 lf 995,2 hPa 0,0 l/m 0 min 0 min 0 W/m 6,3 km/h (2 Bft) 97,87 %
01.03.2017 01:54 1,8 C 2,2 C 1,1 C 95 % 15 lf 995,1 hPa 0,0 l/m 0 min 2 min 0 W/m 12,6 km/h (3 Bft) 97,87 %
01.03.2017 01:56 1,8 C 2,2 C 1,1 C 95 % 15 lf 995,2 hPa 0,0 l/m 0 min 2 min 0 W/m 10,5 km/h (2 Bft) 97,83 %
01.03.2017 01:58 1,9 C 2,2 C 1,1 C 95 % 15 lf 995,2 hPa 0,0 l/m 0 min 2 min 0 W/m 8,4 km/h (2 Bft) 97,87 %
01.03.2017 02:00 1,9 C 2,2 C 1,1 C 95 % 15 lf 995,2 hPa 0,0 l/m 0 min 0 min 0 W/m 10,5 km/h (2 Bft) 95,74 %
01.03.2017 02:02 1,9 C 2,2 C 1,1 C 95 % 15 lf 995,1 hPa 0,0 l/m 0 min 2 min 0 W/m 10,5 km/h (2 Bft) 97,87 %
01.03.2017 02:04 1,9 C 2,2 C 1,1 C 95 % 15 lf 995,2 hPa 0,0 l/m 0 min 2 min 0 W/m 10,5 km/h (2 Bft) 93,62 %
01.03.2017 02:06 1,9 C 2,2 C 1,1 C 95 % 15 lf 995,2 hPa 0,0 l/m 0 min 2 min 0 W/m 6,3 km/h (2 Bft) 95,74 %
01.03.2017 02:08 1,9 C 2,2 C 1,1 C 95 % 15 lf 995,2 hPa 0,0 l/m 0 min 2 min 0 W/m 6,3 km/h (2 Bft) 95,65 %
01.03.2017 02:10 1,9 C 2,2 C 1,1 C 95 % 15 lf 995,2 hPa 0,0 l/m 0 min 0 min 0 W/m 10,5 km/h (2 Bft) 97,87 %
01.03.2017 02:12 2,0 C 2,2 C 1,1 C 95 % 15 lf 995,2 hPa 0,2 l/m 0 min 2 min 0 W/m 8,4 km/h (2 Bft) 93,62 %
01.03.2017 02:14 2,0 C 2,2 C 1,1 C 95 % 15 lf 995,2 hPa 0,0 l/m 0 min 2 min 0 W/m 8,4 km/h (2 Bft) 97,87 %
01.03.2017 02:16 2,0 C 2,2 C 1,1 C 95 % 15 lf 995,1 hPa 0,0 l/m 0 min 2 min 0 W/m 10,5 km/h (2 Bft) 95,74 %
01.03.2017 02:18 2,0 C 2,2 C 1,1 C 95 % 15 lf 995,1 hPa 0,0 l/m 0 min 2 min 0 W/m 6,3 km/h (2 Bft) 93,48 %
01.03.2017 02:20 2,1 C 2,2 C 1,1 C 95 % 15 lf 995,1 hPa 0,0 l/m 0 min 0 min 0 W/m 8,4 km/h (2 Bft) 97,87 %
01.03.2017 02:22 2,1 C 2,2 C 1,1 C 95 % 15 lf 995,1 hPa 0,0 l/m 0 min 2 min 0 W/m 10,5 km/h (2 Bft) 97,87 %
01.03.2017 02:24 2,1 C 2,2 C 1,1 C 96 % 15 lf 995,0 hPa 0,0 l/m 0 min 2 min 0 W/m 8,4 km/h (2 Bft) 95,74 %
01.03.2017 02:26 2,1 C 2,2 C 1,1 C 96 % 15 lf 995,1 hPa 0,0 l/m 0 min 0 min 0 W/m 6,3 km/h (2 Bft) 100,00 %
01.03.2017 02:28 2,2 C 2,2 C 1,1 C 96 % 15 lf 995,0 hPa 0,0 l/m 0 min 0 min 0 W/m 10,5 km/h (2 Bft) 100,00 %
01.03.2017 02:30 2,2 C 2,2 C 1,1 C 96 % 15 lf 995,0 hPa 0,0 l/m 0 min 0 min 0 W/m 10,5 km/h (2 Bft) 95,65 %
01.03.2017 02:32 2,2 C 2,2 C 1,1 C 96 % 15 lf 995,0 hPa 0,0 l/m 0 min 0 min 0 W/m 8,4 km/h (2 Bft) 95,74 %
01.03.2017 02:34 2,2 C 2,2 C 1,1 C 96 % 15 lf 995,0 hPa 0,0 l/m 0 min 2 min 0 W/m 8,4 km/h (2 Bft) 93,62 %
01.03.2017 02:36 2,2 C 2,2 C 1,1 C 96 % 15 lf 995,0 hPa 0,0 l/m 0 min 2 min 0 W/m 10,5 km/h (2 Bft) 97,87 %
01.03.2017 02:38 2,3 C 2,2 C 1,1 C 96 % 15 lf 995,0 hPa 0,0 l/m 0 min 2 min 0 W/m 10,5 km/h (2 Bft) 100,00 %
01.03.2017 02:40 2,3 C 2,2 C 1,1 C 96 % 15 lf 995,1 hPa 0,0 l/m 0 min 2 min 0 W/m 10,5 km/h (2 Bft) 95,74 %
01.03.2017 02:42 2,3 C 2,8 C 1,1 C 96 % 15 lf 995,1 hPa 0,0 l/m 0 min 2 min 0 W/m 14,6 km/h (3 Bft) 97,83 %
01.03.2017 02:44 2,3 C 2,8 C 1,1 C 96 % 15 lf 995,1 hPa 0,2 l/m 0 min 2 min 0 W/m 8,4 km/h (2 Bft) 95,74 %
01.03.2017 02:46 2,3 C 2,8 C 1,7 C 96 % 15 lf 995,1 hPa 0,0 l/m 0 min 2 min 0 W/m 8,4 km/h (2 Bft) 95,74 %
01.03.2017 02:48 2,3 C 2,8 C 1,7 C 96 % 15 lf 995,1 hPa 0,0 l/m 0 min 2 min 0 W/m 8,4 km/h (2 Bft) 95,74 %
01.03.2017 02:50 2,4 C 2,8 C 1,7 C 96 % 15 lf 995,0 hPa 0,2 l/m 0 min 2 min 0 W/m 14,6 km/h (3 Bft) 95,74 %
01.03.2017 02:52 2,4 C 2,8 C 1,7 C 96 % 15 lf 995,0 hPa 0,0 l/m 0 min 2 min 0 W/m 12,6 km/h (3 Bft) 93,62 %
01.03.2017 02:54 2,5 C 2,8 C 1,7 C 96 % 15 lf 995,0 hPa 0,0 l/m 0 min 0 min 0 W/m 10,5 km/h (2 Bft) 97,83 %
01.03.2017 02:56 2,6 C 2,8 C 1,7 C 96 % 15 lf 995,0 hPa 0,0 l/m 0 min 2 min 0 W/m 10,5 km/h (2 Bft) 93,62 %
01.03.2017 02:58 2,6 C 3,3 C 1,7 C 96 % 15 lf 995,0 hPa 0,0 l/m 0 min 0 min 0 W/m 6,3 km/h (2 Bft) 95,74 %
01.03.2017 03:00 2,6 C 3,3 C 1,7 C 96 % 15 lf 995,0 hPa 0,0 l/m 0 min 0 min 0 W/m 8,4 km/h (2 Bft) 91,49 %
01.03.2017 03:02 2,7 C 3,3 C 2,2 C 96 % 15 lf 995,0 hPa 0,0 l/m 0 min 0 min 0 W/m 6,3 km/h (2 Bft) 93,62 %
01.03.2017 03:04 2,7 C 3,3 C 2,2 C 96 % 15 lf 995,0 hPa 0,0 l/m 0 min 0 min 0 W/m 10,5 km/h (2 Bft) 93,62 %
01.03.2017 03:06 2,7 C 3,3 C 2,2 C 96 % 15 lf 994,9 hPa 0,0 l/m 0 min 0 min 0 W/m 6,3 km/h (2 Bft) 97,83 %
01.03.2017 03:08 2,7 C 3,3 C 2,2 C 96 % 15 lf 994,9 hPa 0,0 l/m 0 min 0 min 0 W/m 8,4 km/h (2 Bft) 97,87 %
01.03.2017 03:10 2,8 C 3,3 C 2,2 C 96 % 15 lf 994,9 hPa 0,0 l/m 0 min 2 min 0 W/m 14,6 km/h (3 Bft) 95,74 %
01.03.2017 03:12 2,9 C 3,3 C 2,2 C 96 % 15 lf 994,9 hPa 0,0 l/m 0 min 2 min 0 W/m 10,5 km/h (2 Bft) 95,74 %
01.03.2017 03:14 2,9 C 3,3 C 2,2 C 96 % 15 lf 994,9 hPa 0,0 l/m 0 min 2 min 0 W/m 10,5 km/h (2 Bft) 95,74 %
01.03.2017 03:16 3,0 C 3,3 C 2,2 C 96 % 15 lf 994,8 hPa 0,0 l/m 0 min 2 min 0 W/m 12,6 km/h (3 Bft) 93,62 %
01.03.2017 03:18 3,1 C 3,9 C 2,2 C 96 % 15 lf 994,8 hPa 0,0 l/m 0 min 2 min 0 W/m 12,6 km/h (3 Bft) 95,65 %
01.03.2017 03:20 3,1 C 3,9 C 2,2 C 96 % 15 lf 994,8 hPa 0,0 l/m 0 min 0 min 0 W/m 14,6 km/h (3 Bft) 93,62 %
01.03.2017 03:22 3,2 C 3,9 C 2,8 C 96 % 15 lf 994,9 hPa 0,2 l/m 0 min 2 min 0 W/m 16,7 km/h (3 Bft) 95,74 %
01.03.2017 03:24 3,3 C 3,9 C 2,8 C 96 % 15 lf 994,8 hPa 0,0 l/m 0 min 2 min 0 W/m 10,5 km/h (2 Bft) 93,62 %
01.03.2017 03:26 3,4 C 3,9 C 2,8 C 97 % 15 lf 994,8 hPa 0,2 l/m 0 min 2 min 0 W/m 10,5 km/h (2 Bft) 91,49 %
01.03.2017 03:28 3,4 C 3,9 C 2,8 C 97 % 15 lf 994,8 hPa 0,0 l/m 0 min 2 min 0 W/m 10,5 km/h (2 Bft) 95,74 %
01.03.2017 03:30 3,5 C 3,9 C 2,8 C 97 % 15 lf 994,8 hPa 0,0 l/m 0 min 2 min 0 W/m 10,5 km/h (2 Bft) 93,48 %
01.03.2017 03:32 3,5 C 3,9 C 2,8 C 97 % 15 lf 994,8 hPa 0,0 l/m 0 min 0 min 0 W/m 10,5 km/h (2 Bft) 91,49 %
01.03.2017 03:34 3,6 C 3,9 C 2,8 C 97 % 15 lf 994,8 hPa 0,0 l/m 0 min 0 min 0 W/m 12,6 km/h (3 Bft) 91,49 %
01.03.2017 03:36 3,6 C 3,9 C 2,8 C 97 % 15 lf 994,8 hPa 0,0 l/m 0 min 0 min 0 W/m 12,6 km/h (3 Bft) 91,49 %
01.03.2017 03:38 3,6 C 3,9 C 2,8 C 97 % 15 lf 994,7 hPa 0,0 l/m 0 min 2 min 0 W/m 16,7 km/h (3 Bft) 95,74 %
01.03.2017 03:40 3,7 C 3,9 C 2,8 C 97 % 15 lf 994,7 hPa 0,0 l/m 0 min 2 min 0 W/m 14,6 km/h (3 Bft) 93,48 %
01.03.2017 03:42 3,7 C 3,9 C 2,8 C 97 % 15 lf 994,8 hPa 0,0 l/m 0 min 2 min 0 W/m 10,5 km/h (2 Bft) 91,49 %
01.03.2017 03:44 3,8 C 3,9 C 2,8 C 97 % 15 lf 994,8 hPa 0,0 l/m 0 min 0 min 0 W/m 14,6 km/h (3 Bft) 95,74 %
01.03.2017 03:46 3,8 C 3,9 C 2,8 C 97 % 15 lf 994,6 hPa 0,0 l/m 0 min 2 min 0 W/m 16,7 km/h (3 Bft) 93,62 %
01.03.2017 03:48 3,8 C 4,4 C 2,8 C 97 % 15 lf 994,7 hPa 0,0 l/m 0 min 2 min 0 W/m 20,9 km/h (4 Bft) 95,74 %
01.03.2017 03:50 3,9 C 4,4 C 2,8 C 97 % 15 lf 994,8 hPa 0,0 l/m 0 min 2 min 0 W/m 20,9 km/h (4 Bft) 91,49 %
01.03.2017 03:52 3,9 C 4,4 C 2,8 C 97 % 15 lf 994,7 hPa 0,0 l/m 0 min 2 min 0 W/m 23,0 km/h (4 Bft) 93,48 %
01.03.2017 03:54 3,9 C 4,4 C 2,8 C 97 % 15 lf 994,6 hPa 0,0 l/m 0 min 2 min 0 W/m 14,6 km/h (3 Bft) 97,87 %
01.03.2017 03:56 4,0 C 4,4 C 2,8 C 97 % 15 lf 994,6 hPa 0,0 l/m 0 min 2 min 0 W/m 18,8 km/h (3 Bft) 97,87 %
01.03.2017 03:58 4,1 C 4,4 C 2,8 C 97 % 15 lf 994,6 hPa 0,0 l/m 0 min 2 min 0 W/m 20,9 km/h (4 Bft) 91,49 %
01.03.2017 04:00 4,1 C 4,4 C 2,8 C 97 % 15 lf 994,5 hPa 0,2 l/m 0 min 2 min 0 W/m 14,6 km/h (3 Bft) 97,87 %
01.03.2017 04:02 4,1 C 4,4 C 2,8 C 97 % 15 lf 994,5 hPa 0,0 l/m 0 min 2 min 0 W/m 18,8 km/h (3 Bft) 93,55 %
01.03.2017 04:04 4,2 C 4,4 C 2,8 C 97 % 15 lf 994,5 hPa 0,0 l/m 0 min 2 min 0 W/m 20,9 km/h (4 Bft) 93,48 %
01.03.2017 04:06 4,2 C 4,4 C 2,8 C 97 % 15 lf 994,5 hPa 0,2 l/m 0 min 2 min 0 W/m 16,7 km/h (3 Bft) 95,74 %
01.03.2017 04:08 4,2 C 4,4 C 2,8 C 97 % 15 lf 994,5 hPa 0,0 l/m 0 min 2 min 0 W/m 23,0 km/h (4 Bft) 100,00 %
01.03.2017 04:10 4,2 C 4,4 C 3,3 C 97 % 15 lf 994,5 hPa 0,0 l/m 0 min 0 min 0 W/m 20,9 km/h (4 Bft) 97,87 %
01.03.2017 04:12 4,3 C 4,4 C 3,3 C 97 % 15 lf 994,5 hPa 0,0 l/m 0 min 0 min 0 W/m 25,1 km/h (4 Bft) 95,74 %
01.03.2017 04:14 4,3 C 4,4 C 3,3 C 97 % 15 lf 994,4 hPa 0,0 l/m 0 min 0 min 0 W/m 20,9 km/h (4 Bft) 100,00 %
01.03.2017 04:16 4,3 C 4,4 C 3,3 C 97 % 15 lf 994,4 hPa 0,0 l/m 0 min 0 min 0 W/m 23,0 km/h (4 Bft) 95,65 %
01.03.2017 04:18 4,4 C 4,4 C 3,3 C 97 % 15 lf 994,4 hPa 0,0 l/m 0 min 2 min 0 W/m 37,7 km/h (5 Bft) 97,87 %
01.03.2017 04:20 4,4 C 4,4 C 3,3 C 97 % 15 lf 994,5 hPa 0,0 l/m 0 min 0 min 0 W/m 27,2 km/h (4 Bft) 100,00 %
01.03.2017 04:22 4,4 C 4,4 C 3,3 C 97 % 15 lf 994,5 hPa 0,0 l/m 0 min 2 min 0 W/m 27,2 km/h (4 Bft) 95,74 %
01.03.2017 04:24 4,4 C 4,4 C 3,3 C 97 % 15 lf 994,4 hPa 0,0 l/m 0 min 2 min 0 W/m 29,3 km/h (5 Bft) 100,00 %
01.03.2017 04:26 4,5 C 4,4 C 3,3 C 97 % 15 lf 994,4 hPa 0,0 l/m 0 min 0 min 0 W/m 20,9 km/h (4 Bft) 97,87 %
01.03.2017 04:28 4,5 C 4,4 C 3,3 C 97 % 15 lf 994,5 hPa 0,0 l/m 0 min 0 min 0 W/m 16,7 km/h (3 Bft) 91,30 %
01.03.2017 04:30 4,6 C 4,4 C 3,3 C 97 % 15 lf 994,4 hPa 0,0 l/m 0 min 0 min 0 W/m 27,2 km/h (4 Bft) 95,74 %
01.03.2017 04:32 4,6 C 4,4 C 3,3 C 97 % 15 lf 994,4 hPa 0,0 l/m 0 min 2 min 0 W/m 43,9 km/h (6 Bft) 93,62 %
01.03.2017 04:34 4,6 C 4,4 C 3,3 C 97 % 15 lf 994,5 hPa 0,0 l/m 0 min 0 min 0 W/m 27,2 km/h (4 Bft) 95,74 %
01.03.2017 04:36 4,6 C 4,4 C 3,3 C 97 % 15 lf 994,5 hPa 0,0 l/m 0 min 0 min 0 W/m 23,0 km/h (4 Bft) 93,62 %
01.03.2017 04:38 4,6 C 4,4 C 3,3 C 97 % 15 lf 994,5 hPa 0,0 l/m 0 min 0 min 0 W/m 20,9 km/h (4 Bft) 95,74 %
01.03.2017 04:40 4,7 C 4,4 C 3,3 C 97 % 15 lf 994,6 hPa 0,0 l/m 0 min 2 min 0 W/m 31,4 km/h (5 Bft) 93,48 %
01.03.2017 04:42 4,7 C 5,0 C 3,3 C 97 % 15 lf 994,5 hPa 0,0 l/m 0 min 0 min 0 W/m 27,2 km/h (4 Bft) 91,49 %
01.03.2017 04:44 4,7 C 5,0 C 3,3 C 97 % 15 lf 994,6 hPa 0,0 l/m 0 min 2 min 0 W/m 35,6 km/h (5 Bft) 93,62 %
01.03.2017 04:46 4,8 C 5,0 C 3,3 C 97 % 15 lf 994,5 hPa 0,0 l/m 0 min 2 min 0 W/m 27,2 km/h (4 Bft) 93,62 %
01.03.2017 04:48 4,8 C 5,0 C 3,9 C 97 % 15 lf 994,6 hPa 0,0 l/m 0 min 0 min 0 W/m 29,3 km/h (5 Bft) 93,62 %
01.03.2017 04:50 4,8 C 5,0 C 3,9 C 97 % 15 lf 994,7 hPa 0,0 l/m 0 min 2 min 0 W/m 29,3 km/h (5 Bft) 93,48 %
01.03.2017 04:52 4,9 C 5,0 C 3,3 C 97 % 15 lf 994,6 hPa 0,0 l/m 0 min 0 min 0 W/m 27,2 km/h (4 Bft) 95,74 %
01.03.2017 04:54 4,9 C 5,0 C 3,9 C 97 % 15 lf 994,8 hPa 0,0 l/m 0 min 2 min 0 W/m 37,7 km/h (5 Bft) 97,87 %
01.03.2017 04:56 4,9 C 5,0 C 3,9 C 97 % 15 lf 994,6 hPa 0,0 l/m 0 min 2 min 0 W/m 25,1 km/h (4 Bft) 95,74 %
01.03.2017 04:58 4,9 C 5,0 C 3,9 C 97 % 15 lf 994,7 hPa 0,0 l/m 0 min 2 min 0 W/m 39,7 km/h (6 Bft) 97,87 %
01.03.2017 05:00 5,0 C 5,0 C 3,9 C 97 % 15 lf 994,8 hPa 0,0 l/m 0 min 2 min 0 W/m 39,7 km/h (6 Bft) 95,74 %
01.03.2017 05:02 5,0 C 5,0 C 3,9 C 97 % 15 lf 994,8 hPa 0,0 l/m 0 min 2 min 0 W/m 31,4 km/h (5 Bft) 95,65 %
01.03.2017 05:04 5,1 C 5,0 C 3,9 C 97 % 15 lf 994,8 hPa 0,0 l/m 0 min 2 min 0 W/m 35,6 km/h (5 Bft) 97,87 %
01.03.2017 05:06 5,1 C 5,0 C 3,9 C 97 % 15 lf 994,8 hPa 0,0 l/m 0 min 2 min 0 W/m 35,6 km/h (5 Bft) 98,15 %
01.03.2017 05:08 5,1 C 5,0 C 3,9 C 97 % 15 lf 994,7 hPa 0,0 l/m 0 min 0 min 0 W/m 41,8 km/h (6 Bft) 89,13 %
01.03.2017 05:10 5,1 C 5,0 C 3,9 C 97 % 15 lf 994,7 hPa 0,0 l/m 0 min 2 min 0 W/m 35,6 km/h (5 Bft) 97,87 %
01.03.2017 05:12 5,1 C 5,0 C 3,9 C 97 % 15 lf 994,8 hPa 0,0 l/m 0 min 2 min 0 W/m 20,9 km/h (4 Bft) 95,74 %
01.03.2017 05:14 5,2 C 5,0 C 3,9 C 97 % 15 lf 994,8 hPa 0,0 l/m 0 min 2 min 0 W/m 37,7 km/h (5 Bft) 93,62 %
01.03.2017 05:16 5,2 C 5,0 C 3,9 C 96 % 15 lf 994,8 hPa 0,0 l/m 0 min 2 min 0 W/m 29,3 km/h (5 Bft) 95,74 %
01.03.2017 05:18 5,2 C 5,0 C 3,9 C 96 % 15 lf 994,8 hPa 0,0 l/m 0 min 0 min 0 W/m 29,3 km/h (5 Bft) 97,87 %
01.03.2017 05:20 5,2 C 5,0 C 3,9 C 96 % 15 lf 994,8 hPa 0,0 l/m 0 min 2 min 0 W/m 37,7 km/h (5 Bft) 97,83 %
01.03.2017 05:22 5,2 C 5,0 C 3,9 C 96 % 15 lf 994,8 hPa 0,0 l/m 0 min 2 min 0 W/m 31,4 km/h (5 Bft) 100,00 %
01.03.2017 05:24 5,2 C 5,0 C 3,9 C 96 % 14 lf 994,8 hPa 0,0 l/m 0 min 2 min 0 W/m 25,1 km/h (4 Bft) 95,74 %
01.03.2017 05:26 5,2 C 5,0 C 3,9 C 96 % 14 lf 994,8 hPa 0,0 l/m 0 min 2 min 0 W/m 29,3 km/h (5 Bft) 100,00 %
01.03.2017 05:28 5,2 C 5,0 C 3,9 C 96 % 15 lf 994,9 hPa 0,0 l/m 0 min 2 min 0 W/m 41,8 km/h (6 Bft) 97,87 %
01.03.2017 05:30 5,3 C 5,0 C 3,9 C 96 % 14 lf 994,9 hPa 0,0 l/m 0 min 2 min 0 W/m 27,2 km/h (4 Bft) 100,00 %
01.03.2017 05:32 5,3 C 5,0 C 3,9 C 96 % 14 lf 994,9 hPa 0,0 l/m 0 min 0 min 0 W/m 23,0 km/h (4 Bft) 97,87 %
01.03.2017 05:34 5,3 C 5,0 C 3,9 C 96 % 14 lf 995,0 hPa 0,0 l/m 0 min 0 min 0 W/m 31,4 km/h (5 Bft) 100,00 %
01.03.2017 05:36 5,3 C 5,0 C 3,9 C 96 % 14 lf 995,0 hPa 0,0 l/m 0 min 2 min 0 W/m 27,2 km/h (4 Bft) 98,00 %
01.03.2017 05:38 5,3 C 5,0 C 3,9 C 96 % 14 lf 994,9 hPa 0,0 l/m 0 min 0 min 0 W/m 31,4 km/h (5 Bft) 95,74 %
01.03.2017 05:40 5,3 C 5,0 C 3,9 C 96 % 13 lf 994,9 hPa 0,0 l/m 0 min 0 min 0 W/m 29,3 km/h (5 Bft) 100,00 %
01.03.2017 05:42 5,3 C 5,0 C 3,9 C 96 % 13 lf 995,0 hPa 0,0 l/m 0 min 0 min 0 W/m 37,7 km/h (5 Bft) 97,83 %
01.03.2017 05:44 5,3 C 5,0 C 3,9 C 96 % 13 lf 995,0 hPa 0,0 l/m 0 min 0 min 0 W/m 37,7 km/h (5 Bft) 97,87 %
01.03.2017 05:46 5,4 C 5,0 C 3,9 C 96 % 13 lf 995,1 hPa 0,0 l/m 0 min 0 min 0 W/m 33,5 km/h (5 Bft) 97,87 %
01.03.2017 05:48 5,4 C 5,0 C 3,9 C 95 % 12 lf 995,0 hPa 0,0 l/m 0 min 0 min 0 W/m 35,6 km/h (5 Bft) 95,74 %
01.03.2017 05:50 5,4 C 5,0 C 3,9 C 95 % 12 lf 995,1 hPa 0,0 l/m 0 min 0 min 0 W/m 33,5 km/h (5 Bft) 95,74 %
01.03.2017 05:52 5,4 C 5,0 C 3,9 C 95 % 11 lf 995,1 hPa 0,0 l/m 0 min 0 min 0 W/m 31,4 km/h (5 Bft) 97,83 %
01.03.2017 05:54 5,4 C 5,0 C 3,9 C 95 % 11 lf 995,1 hPa 0,0 l/m 0 min 0 min 0 W/m 29,3 km/h (5 Bft) 97,87 %
01.03.2017 05:56 5,4 C 5,0 C 3,9 C 95 % 10 lf 995,1 hPa 0,0 l/m 0 min 0 min 0 W/m 23,0 km/h (4 Bft) 95,74 %
01.03.2017 05:58 5,4 C 5,0 C 3,9 C 95 % 9 lf 995,3 hPa 0,0 l/m 0 min 0 min 0 W/m 29,3 km/h (5 Bft) 97,87 %
01.03.2017 06:00 5,5 C 5,0 C 3,9 C 95 % 9 lf 995,2 hPa 0,0 l/m 0 min 0 min 0 W/m 25,1 km/h (4 Bft) 97,87 %
01.03.2017 06:02 5,4 C 5,0 C 3,9 C 95 % 7 lf 995,2 hPa 0,0 l/m 0 min 0 min 0 W/m 29,3 km/h (5 Bft) 95,74 %
01.03.2017 06:04 5,5 C 5,0 C 3,9 C 95 % 7 lf 995,2 hPa 0,0 l/m 0 min 0 min 0 W/m 29,3 km/h (5 Bft) 94,59 %
01.03.2017 06:06 5,5 C 5,0 C 3,9 C 95 % 6 lf 995,3 hPa 0,0 l/m 0 min 0 min 0 W/m 23,0 km/h (4 Bft) 95,74 %
01.03.2017 06:08 5,5 C 5,0 C 3,9 C 95 % 5 lf 995,2 hPa 0,0 l/m 0 min 0 min 0 W/m 23,0 km/h (4 Bft) 97,83 %
01.03.2017 06:10 5,5 C 5,6 C 3,9 C 95 % 4 lf 995,1 hPa 0,0 l/m 0 min 0 min 0 W/m 29,3 km/h (5 Bft) 95,74 %
01.03.2017 06:12 5,5 C 5,6 C 3,9 C 95 % 4 lf 995,3 hPa 0,0 l/m 0 min 0 min 0 W/m 29,3 km/h (5 Bft) 93,62 %
01.03.2017 06:14 5,5 C 5,6 C 3,9 C 95 % 4 lf 995,3 hPa 0,0 l/m 0 min 0 min 0 W/m 37,7 km/h (5 Bft) 91,49 %
01.03.2017 06:16 5,6 C 5,6 C 3,9 C 95 % 4 lf 995,3 hPa 0,0 l/m 0 min 0 min 0 W/m 35,6 km/h (5 Bft) 95,74 %
01.03.2017 06:18 5,6 C 5,6 C 3,9 C 95 % 3 lf 995,4 hPa 0,0 l/m 0 min 0 min 0 W/m 33,5 km/h (5 Bft) 91,49 %
01.03.2017 06:20 5,6 C 5,6 C 3,9 C 95 % 3 lf 995,4 hPa 0,0 l/m 0 min 0 min 0 W/m 35,6 km/h (5 Bft) 95,74 %
01.03.2017 06:22 5,6 C 5,6 C 3,9 C 95 % 4 lf 995,4 hPa 0,0 l/m 0 min 2 min 0 W/m 33,5 km/h (5 Bft) 95,74 %
01.03.2017 06:24 5,6 C 5,6 C 3,9 C 95 % 8 lf 995,4 hPa 0,0 l/m 0 min 2 min 0 W/m 27,2 km/h (4 Bft) 97,83 %
01.03.2017 06:26 5,7 C 5,6 C 3,9 C 95 % 13 lf 995,4 hPa 0,0 l/m 0 min 2 min 0 W/m 27,2 km/h (4 Bft) 97,87 %
01.03.2017 06:28 5,7 C 5,6 C 3,9 C 95 % 15 lf 995,6 hPa 0,0 l/m 0 min 2 min 0 W/m 37,7 km/h (5 Bft) 95,74 %
01.03.2017 06:30 5,7 C 5,6 C 3,9 C 95 % 15 lf 995,5 hPa 0,0 l/m 0 min 2 min 0 W/m 27,2 km/h (4 Bft) 95,74 %
01.03.2017 06:32 5,7 C 5,6 C 3,9 C 95 % 15 lf 995,5 hPa 0,2 l/m 0 min 2 min 0 W/m 37,7 km/h (5 Bft) 97,87 %
01.03.2017 06:34 5,7 C 5,6 C 3,9 C 95 % 15 lf 995,5 hPa 0,0 l/m 0 min 2 min 0 W/m 33,5 km/h (5 Bft) 95,74 %
01.03.2017 06:36 5,7 C 5,6 C 3,9 C 95 % 15 lf 995,5 hPa 0,0 l/m 0 min 2 min 0 W/m 35,6 km/h (5 Bft) 95,65 %
01.03.2017 06:38 5,7 C 5,6 C 3,9 C 95 % 15 lf 995,5 hPa 0,0 l/m 0 min 2 min 0 W/m 23,0 km/h (4 Bft) 93,62 %
01.03.2017 06:40 5,7 C 5,6 C 3,9 C 95 % 15 lf 995,6 hPa 0,0 l/m 0 min 2 min 0 W/m 31,4 km/h (5 Bft) 100,00 %
01.03.2017 06:42 5,7 C 5,6 C 3,9 C 95 % 15 lf 995,6 hPa 0,0 l/m 0 min 2 min 0 W/m 25,1 km/h (4 Bft) 95,74 %
01.03.2017 06:44 5,7 C 5,6 C 3,9 C 95 % 15 lf 995,5 hPa 0,0 l/m 0 min 2 min 0 W/m 35,6 km/h (5 Bft) 93,62 %
01.03.2017 06:46 5,7 C 5,6 C 3,9 C 95 % 15 lf 995,6 hPa 0,0 l/m 0 min 2 min 0 W/m 23,0 km/h (4 Bft) 100,00 %
01.03.2017 06:48 5,7 C 5,6 C 3,9 C 95 % 15 lf 995,6 hPa 0,0 l/m 0 min 0 min 0 W/m 27,2 km/h (4 Bft) 97,83 %
01.03.2017 06:50 5,7 C 5,6 C 3,9 C 95 % 15 lf 995,6 hPa 0,0 l/m 0 min 2 min 0 W/m 35,6 km/h (5 Bft) 100,00 %
01.03.2017 06:52 5,7 C 5,6 C 3,9 C 95 % 15 lf 995,7 hPa 0,0 l/m 0 min 2 min 0 W/m 39,7 km/h (6 Bft) 100,00 %
01.03.2017 06:54 5,7 C 5,6 C 3,9 C 95 % 15 lf 995,7 hPa 0,2 l/m 0 min 2 min 0 W/m 31,4 km/h (5 Bft) 100,00 %
01.03.2017 06:56 5,7 C 5,6 C 3,9 C 95 % 15 lf 995,7 hPa 0,0 l/m 0 min 2 min 0 W/m 31,4 km/h (5 Bft) 95,74 %
01.03.2017 06:58 5,8 C 5,6 C 3,9 C 95 % 15 lf 995,8 hPa 0,0 l/m 0 min 2 min 0 W/m 31,4 km/h (5 Bft) 100,00 %
01.03.2017 07:00 5,8 C 5,6 C 3,9 C 95 % 15 lf 996,0 hPa 0,2 l/m 0 min 2 min 0 W/m 33,5 km/h (5 Bft) 97,87 %
01.03.2017 07:02 5,8 C 5,6 C 3,9 C 95 % 15 lf 996,2 hPa 0,0 l/m 0 min 2 min 0 W/m 39,7 km/h (6 Bft) 95,74 %
01.03.2017 07:04 5,8 C 5,6 C 3,9 C 95 % 15 lf 996,4 hPa 0,0 l/m 0 min 2 min 0 W/m 39,7 km/h (6 Bft) 100,00 %
01.03.2017 07:06 5,7 C 5,0 C 3,9 C 95 % 15 lf 996,4 hPa 0,2 l/m 0 min 2 min 0 W/m 35,6 km/h (5 Bft) 97,87 %
01.03.2017 07:08 5,7 C 5,0 C 3,9 C 95 % 15 lf 996,3 hPa 0,0 l/m 0 min 2 min 0 W/m 23,0 km/h (4 Bft) 100,00 %
01.03.2017 07:10 5,6 C 5,0 C 3,3 C 95 % 15 lf 996,2 hPa 0,0 l/m 0 min 2 min 0 W/m 31,4 km/h (5 Bft) 100,00 %
01.03.2017 07:12 5,5 C 5,0 C 3,3 C 95 % 15 lf 996,3 hPa 0,0 l/m 0 min 2 min 0 W/m 33,5 km/h (5 Bft) 95,74 %
01.03.2017 07:14 5,4 C 4,4 C 3,3 C 95 % 15 lf 996,4 hPa 0,0 l/m 0 min 2 min 0 W/m 48,1 km/h (6 Bft) 97,87 %
01.03.2017 07:16 5,3 C 4,4 C 3,3 C 95 % 15 lf 996,5 hPa 0,2 l/m 0 min 2 min 0 W/m 35,6 km/h (5 Bft) 95,74 %
01.03.2017 07:18 5,2 C 4,4 C 3,3 C 95 % 15 lf 996,4 hPa 0,0 l/m 0 min 2 min 0 W/m 29,3 km/h (5 Bft) 93,62 %
01.03.2017 07:20 5,2 C 4,4 C 3,3 C 94 % 15 lf 996,4 hPa 0,0 l/m 0 min 2 min 0 W/m 31,4 km/h (5 Bft) 97,87 %
01.03.2017 07:22 5,1 C 4,4 C 3,3 C 94 % 15 lf 996,4 hPa 0,0 l/m 0 min 2 min 1 W/m 35,6 km/h (5 Bft) 97,83 %
01.03.2017 07:24 5,1 C 4,4 C 3,3 C 94 % 15 lf 996,5 hPa 0,0 l/m 0 min 2 min 3 W/m 35,6 km/h (5 Bft) 97,87 %
01.03.2017 07:26 5,0 C 4,4 C 3,3 C 94 % 15 lf 996,7 hPa 0,0 l/m 0 min 2 min 4 W/m 31,4 km/h (5 Bft) 97,87 %
01.03.2017 07:28 4,9 C 4,4 C 3,3 C 94 % 15 lf 996,6 hPa 0,0 l/m 0 min 2 min 5 W/m 29,3 km/h (5 Bft) 93,62 %
01.03.2017 07:30 4,9 C 4,4 C 3,3 C 94 % 15 lf 996,7 hPa 0,0 l/m 0 min 0 min 5 W/m 29,3 km/h (5 Bft) 97,87 %
01.03.2017 07:32 4,9 C 4,4 C 3,3 C 94 % 15 lf 996,7 hPa 0,0 l/m 0 min 0 min 6 W/m 27,2 km/h (4 Bft) 95,74 %
01.03.2017 07:34 4,9 C 4,4 C 3,3 C 94 % 15 lf 996,8 hPa 0,0 l/m 0 min 2 min 7 W/m 27,2 km/h (4 Bft) 93,48 %
01.03.2017 07:36 4,9 C 4,4 C 3,3 C 94 % 15 lf 996,9 hPa 0,0 l/m 0 min 2 min 8 W/m 29,3 km/h (5 Bft) 95,74 %
01.03.2017 07:38 4,9 C 4,4 C 3,3 C 95 % 15 lf 996,8 hPa 0,0 l/m 0 min 2 min 9 W/m 25,1 km/h (4 Bft) 91,49 %
01.03.2017 07:40 4,9 C 4,4 C 3,3 C 95 % 15 lf 996,8 hPa 0,0 l/m 0 min 2 min 9 W/m 31,4 km/h (5 Bft) 95,74 %
01.03.2017 07:42 4,9 C 4,4 C 2,8 C 95 % 15 lf 996,9 hPa 0,0 l/m 0 min 2 min 10 W/m 33,5 km/h (5 Bft) 95,74 %
01.03.2017 07:44 4,9 C 4,4 C 2,8 C 95 % 15 lf 997,0 hPa 0,0 l/m 0 min 2 min 11 W/m 27,2 km/h (4 Bft) 93,62 %
01.03.2017 07:46 4,9 C 4,4 C 2,8 C 95 % 15 lf 996,9 hPa 0,0 l/m 0 min 2 min 12 W/m 27,2 km/h (4 Bft) 95,65 %
01.03.2017 07:48 4,9 C 4,4 C 2,8 C 95 % 15 lf 997,0 hPa 0,0 l/m 0 min 0 min 12 W/m 27,2 km/h (4 Bft) 95,74 %
01.03.2017 07:50 4,9 C 4,4 C 2,8 C 94 % 15 lf 997,1 hPa 0,0 l/m 0 min 2 min 14 W/m 29,3 km/h (5 Bft) 95,74 %
01.03.2017 07:52 4,9 C 4,4 C 2,8 C 94 % 15 lf 997,1 hPa 0,0 l/m 0 min 2 min 14 W/m 23,0 km/h (4 Bft) 91,49 %
01.03.2017 07:54 4,9 C 4,4 C 2,8 C 94 % 15 lf 997,1 hPa 0,0 l/m 0 min 2 min 15 W/m 33,5 km/h (5 Bft) 93,62 %
01.03.2017 07:56 4,9 C 4,4 C 3,3 C 94 % 15 lf 997,1 hPa 0,0 l/m 0 min 2 min 17 W/m 31,4 km/h (5 Bft) 91,49 %
01.03.2017 07:58 4,9 C 4,4 C 3,3 C 94 % 15 lf 997,2 hPa 0,0 l/m 0 min 2 min 18 W/m 29,3 km/h (5 Bft) 93,48 %
01.03.2017 08:00 4,9 C 4,4 C 3,3 C 94 % 15 lf 997,2 hPa 0,0 l/m 0 min 2 min 19 W/m 27,2 km/h (4 Bft) 91,49 %
01.03.2017 08:02 4,9 C 4,4 C 3,3 C 94 % 15 lf 997,2 hPa 0,0 l/m 0 min 2 min 19 W/m 31,4 km/h (5 Bft) 94,55 %
01.03.2017 08:04 4,9 C 4,4 C 3,3 C 94 % 15 lf 997,3 hPa 0,0 l/m 0 min 0 min 21 W/m 27,2 km/h (4 Bft) 91,49 %
01.03.2017 08:06 4,9 C 4,4 C 3,3 C 94 % 15 lf 997,4 hPa 0,0 l/m 0 min 0 min 24 W/m 29,3 km/h (5 Bft) 89,36 %
01.03.2017 08:08 4,9 C 4,4 C 3,3 C 94 % 15 lf 997,4 hPa 0,0 l/m 0 min 2 min 27 W/m 23,0 km/h (4 Bft) 87,23 %
01.03.2017 08:10 4,9 C 4,4 C 3,3 C 94 % 15 lf 997,5 hPa 0,0 l/m 0 min 0 min 32 W/m 25,1 km/h (4 Bft) 93,62 %
01.03.2017 08:12 4,9 C 4,4 C 3,3 C 94 % 15 lf 997,6 hPa 0,0 l/m 0 min 0 min 41 W/m 18,8 km/h (3 Bft) 91,49 %
01.03.2017 08:14 4,9 C 4,4 C 3,3 C 94 % 15 lf 997,6 hPa 0,0 l/m 2 min 0 min 68 W/m 31,4 km/h (5 Bft) 91,30 %
01.03.2017 08:16 4,9 C 5,0 C 3,3 C 94 % 15 lf 997,6 hPa 0,0 l/m 0 min 2 min 58 W/m 25,1 km/h (4 Bft) 91,49 %
01.03.2017 08:18 4,9 C 5,0 C 3,3 C 94 % 15 lf 997,6 hPa 0,0 l/m 2 min 2 min 86 W/m 31,4 km/h (5 Bft) 87,23 %
01.03.2017 08:20 4,9 C 5,0 C 3,9 C 94 % 15 lf 997,7 hPa 0,0 l/m 2 min 0 min 118 W/m 29,3 km/h (5 Bft) 85,11 %
01.03.2017 08:22 5,0 C 5,6 C 3,9 C 94 % 15 lf 997,7 hPa 0,0 l/m 2 min 2 min 166 W/m 31,4 km/h (5 Bft) 89,36 %
01.03.2017 08:24 5,1 C 5,6 C 3,9 C 94 % 15 lf 997,7 hPa 0,0 l/m 2 min 0 min 96 W/m 29,3 km/h (5 Bft) 91,30 %
01.03.2017 08:26 5,1 C 5,6 C 4,4 C 94 % 15 lf 997,8 hPa 0,0 l/m 2 min 0 min 96 W/m 43,9 km/h (6 Bft) 95,74 %
01.03.2017 08:28 5,2 C 5,6 C 4,4 C 94 % 15 lf 997,8 hPa 0,0 l/m 2 min 0 min 86 W/m 39,7 km/h (6 Bft) 93,62 %
01.03.2017 08:30 5,2 C 5,6 C 4,4 C 94 % 15 lf 997,8 hPa 0,0 l/m 0 min 2 min 66 W/m 37,7 km/h (5 Bft) 91,49 %
01.03.2017 08:32 5,3 C 5,6 C 4,4 C 94 % 15 lf 997,9 hPa 0,0 l/m 0 min 2 min 66 W/m 33,5 km/h (5 Bft) 93,62 %
01.03.2017 08:34 5,4 C 5,6 C 4,4 C 94 % 15 lf 998,0 hPa 0,0 l/m 0 min 0 min 52 W/m 27,2 km/h (4 Bft) 95,74 %
01.03.2017 08:36 5,4 C 5,6 C 4,4 C 94 % 15 lf 998,0 hPa 0,0 l/m 0 min 2 min 34 W/m 29,3 km/h (5 Bft) 95,74 %
01.03.2017 08:38 5,4 C 5,6 C 4,4 C 94 % 15 lf 998,0 hPa 0,0 l/m 0 min 0 min 39 W/m 43,9 km/h (6 Bft) 93,48 %
01.03.2017 08:40 5,5 C 5,6 C 4,4 C 94 % 15 lf 998,0 hPa 0,0 l/m 0 min 2 min 50 W/m 33,5 km/h (5 Bft) 97,87 %
01.03.2017 08:42 5,5 C 5,6 C 4,4 C 93 % 14 lf 998,1 hPa 0,0 l/m 0 min 0 min 60 W/m 37,7 km/h (5 Bft) 91,49 %
01.03.2017 08:44 5,6 C 5,6 C 4,4 C 93 % 14 lf 998,1 hPa 0,0 l/m 0 min 2 min 93 W/m 33,5 km/h (5 Bft) 95,74 %
01.03.2017 08:46 5,6 C 6,1 C 4,4 C 93 % 13 lf 998,1 hPa 0,0 l/m 2 min 0 min 130 W/m 29,3 km/h (5 Bft) 97,87 %
01.03.2017 08:48 5,6 C 6,7 C 4,4 C 93 % 13 lf 998,1 hPa 0,0 l/m 2 min 0 min 126 W/m 25,1 km/h (4 Bft) 97,83 %
01.03.2017 08:50 5,7 C 6,7 C 4,4 C 93 % 12 lf 998,2 hPa 0,0 l/m 2 min 0 min 120 W/m 27,2 km/h (4 Bft) 97,87 %
01.03.2017 08:52 5,7 C 6,1 C 4,4 C 93 % 11 lf 998,2 hPa 0,0 l/m 0 min 0 min 104 W/m 43,9 km/h (6 Bft) 93,62 %
01.03.2017 08:54 5,7 C 7,2 C 4,4 C 92 % 10 lf 998,2 hPa 0,0 l/m 0 min 0 min 98 W/m 31,4 km/h (5 Bft) 97,87 %
01.03.2017 08:56 5,8 C 7,8 C 4,4 C 92 % 10 lf 998,2 hPa 0,0 l/m 2 min 0 min 218 W/m 29,3 km/h (5 Bft) 95,74 %
01.03.2017 08:58 5,8 C 8,3 C 4,4 C 92 % 9 lf 998,3 hPa 0,0 l/m 2 min 0 min 216 W/m 27,2 km/h (4 Bft) 95,74 %
01.03.2017 09:00 5,8 C 8,3 C 4,4 C 92 % 6 lf 998,3 hPa 0,0 l/m 2 min 0 min 193 W/m 35,6 km/h (5 Bft) 95,65 %
01.03.2017 09:02 5,9 C 8,9 C 4,4 C 92 % 5 lf 998,3 hPa 0,0 l/m 2 min 0 min 215 W/m 29,3 km/h (5 Bft) 95,74 %
01.03.2017 09:04 5,9 C 8,9 C 4,4 C 92 % 4 lf 998,3 hPa 0,0 l/m 2 min 0 min 213 W/m 33,5 km/h (5 Bft) 100,00 %
01.03.2017 09:06 6,0 C 8,3 C 4,4 C 92 % 3 lf 998,3 hPa 0,0 l/m 2 min 0 min 177 W/m 33,5 km/h (5 Bft) 100,00 %
01.03.2017 09:08 6,0 C 8,3 C 5,0 C 91 % 3 lf 998,4 hPa 0,0 l/m 2 min 0 min 191 W/m 31,4 km/h (5 Bft) 100,00 %
01.03.2017 09:10 6,1 C 8,9 C 5,6 C 91 % 2 lf 998,4 hPa 0,0 l/m 2 min 0 min 197 W/m 35,6 km/h (5 Bft) 100,00 %
01.03.2017 09:12 6,1 C 9,4 C 6,1 C 91 % 2 lf 998,4 hPa 0,0 l/m 2 min 0 min 246 W/m 29,3 km/h (5 Bft) 97,83 %
01.03.2017 09:14 6,2 C 10,0 C 6,7 C 90 % 1 lf 998,5 hPa 0,0 l/m 2 min 0 min 253 W/m 31,4 km/h (5 Bft) 100,00 %
01.03.2017 09:16 6,2 C 10,0 C 6,7 C 90 % 0 lf 998,6 hPa 0,0 l/m 2 min 0 min 260 W/m 27,2 km/h (4 Bft) 100,00 %
01.03.2017 09:18 6,2 C 10,6 C 7,2 C 90 % 0 lf 998,6 hPa 0,0 l/m 2 min 0 min 263 W/m 31,4 km/h (5 Bft) 100,00 %
01.03.2017 09:20 6,3 C 10,6 C 7,2 C 90 % 0 lf 998,6 hPa 0,0 l/m 2 min 0 min 273 W/m 33,5 km/h (5 Bft) 97,87 %
01.03.2017 09:22 6,4 C 11,1 C 6,7 C 89 % 0 lf 998,7 hPa 0,0 l/m 2 min 0 min 280 W/m 25,1 km/h (4 Bft) 100,00 %
01.03.2017 09:24 6,4 C 11,7 C 6,7 C 89 % 0 lf 998,7 hPa 0,0 l/m 2 min 0 min 287 W/m 31,4 km/h (5 Bft) 97,83 %
01.03.2017 09:26 6,5 C 10,6 C 6,7 C 89 % 0 lf 998,8 hPa 0,0 l/m 2 min 0 min 297 W/m 25,1 km/h (4 Bft) 100,00 %
01.03.2017 09:28 6,6 C 10,6 C 6,1 C 89 % 0 lf 998,9 hPa 0,0 l/m 2 min 0 min 318 W/m 29,3 km/h (5 Bft) 100,00 %
01.03.2017 09:30 6,7 C 10,6 C 5,6 C 88 % 0 lf 998,9 hPa 0,0 l/m 2 min 0 min 289 W/m 33,5 km/h (5 Bft) 100,00 %
01.03.2017 09:32 6,7 C 10,0 C 5,6 C 88 % 0 lf 998,9 hPa 0,0 l/m 2 min 0 min 339 W/m 31,4 km/h (5 Bft) 97,87 %
01.03.2017 09:34 6,7 C 10,6 C 5,6 C 87 % 0 lf 999,0 hPa 0,0 l/m 2 min 0 min 336 W/m 31,4 km/h (5 Bft) 97,83 %
01.03.2017 09:36 6,8 C 10,0 C 6,1 C 87 % 0 lf 999,0 hPa 0,0 l/m 2 min 0 min 353 W/m 35,6 km/h (5 Bft) 100,00 %
01.03.2017 09:38 6,9 C 10,0 C 6,7 C 87 % 0 lf 999,1 hPa 0,0 l/m 2 min 0 min 334 W/m 33,5 km/h (5 Bft) 100,00 %
01.03.2017 09:40 6,9 C 8,3 C 6,7 C 87 % 0 lf 999,2 hPa 0,0 l/m 2 min 0 min 215 W/m 27,2 km/h (4 Bft) 100,00 %
01.03.2017 09:42 7,0 C 8,3 C 6,7 C 87 % 0 lf 999,2 hPa 0,0 l/m 2 min 0 min 246 W/m 35,6 km/h (5 Bft) 97,87 %
01.03.2017 09:44 7,0 C 8,3 C 6,7 C 86 % 0 lf 999,2 hPa 0,0 l/m 2 min 0 min 193 W/m 25,1 km/h (4 Bft) 100,00 %
01.03.2017 09:46 7,0 C 7,8 C 6,1 C 86 % 0 lf 999,3 hPa 0,0 l/m 2 min 0 min 172 W/m 31,4 km/h (5 Bft) 100,00 %
01.03.2017 09:48 7,0 C 7,8 C 6,1 C 86 % 0 lf 999,2 hPa 0,0 l/m 0 min 0 min 166 W/m 29,3 km/h (5 Bft) 95,74 %
01.03.2017 09:50 7,1 C 7,8 C 6,1 C 86 % 0 lf 999,2 hPa 0,0 l/m 0 min 0 min 168 W/m 29,3 km/h (5 Bft) 95,74 %
01.03.2017 09:52 7,0 C 9,4 C 6,7 C 86 % 0 lf 999,3 hPa 0,0 l/m 2 min 0 min 185 W/m 43,9 km/h (6 Bft) 100,00 %
01.03.2017 09:54 7,1 C 10,6 C 7,2 C 86 % 0 lf 999,4 hPa 0,0 l/m 2 min 0 min 424 W/m 25,1 km/h (4 Bft) 100,00 %
01.03.2017 09:56 7,1 C 10,0 C 6,7 C 85 % 0 lf 999,3 hPa 0,0 l/m 2 min 0 min 191 W/m 33,5 km/h (5 Bft) 100,00 %
01.03.2017 09:58 7,1 C 10,0 C 6,7 C 85 % 0 lf 999,3 hPa 0,0 l/m 2 min 0 min 218 W/m 43,9 km/h (6 Bft) 95,65 %
01.03.2017 10:00 7,1 C 9,4 C 6,1 C 85 % 0 lf 999,4 hPa 0,0 l/m 2 min 0 min 211 W/m 31,4 km/h (5 Bft) 97,87 %
01.03.2017 10:02 7,1 C 10,0 C 6,1 C 85 % 0 lf 999,3 hPa 0,0 l/m 0 min 0 min 177 W/m 31,4 km/h (5 Bft) 97,87 %
01.03.2017 10:04 7,1 C 10,6 C 6,7 C 85 % 0 lf 999,4 hPa 0,0 l/m 0 min 0 min 180 W/m 33,5 km/h (5 Bft) 97,87 %
01.03.2017 10:06 7,1 C 10,0 C 6,1 C 84 % 0 lf 999,4 hPa 0,0 l/m 0 min 0 min 174 W/m 35,6 km/h (5 Bft) 100,00 %
01.03.2017 10:08 7,1 C 9,4 C 6,1 C 84 % 0 lf 999,5 hPa 0,0 l/m 2 min 0 min 192 W/m 35,6 km/h (5 Bft) 97,87 %
01.03.2017 10:10 7,1 C 9,4 C 6,1 C 84 % 0 lf 999,4 hPa 0,0 l/m 2 min 0 min 199 W/m 25,1 km/h (4 Bft) 95,74 %
01.03.2017 10:12 7,1 C 9,4 C 6,1 C 84 % 0 lf 999,5 hPa 0,0 l/m 0 min 0 min 169 W/m 27,2 km/h (4 Bft) 100,00 %
01.03.2017 10:14 7,1 C 8,9 C 6,1 C 84 % 0 lf 999,5 hPa 0,0 l/m 0 min 0 min 140 W/m 29,3 km/h (5 Bft) 97,87 %
01.03.2017 10:16 7,1 C 9,4 C 6,1 C 84 % 0 lf 999,4 hPa 0,0 l/m 2 min 0 min 217 W/m 29,3 km/h (5 Bft) 95,74 %
01.03.2017 10:18 7,1 C 9,4 C 5,6 C 84 % 0 lf 999,6 hPa 0,0 l/m 2 min 0 min 222 W/m 39,7 km/h (6 Bft) 95,74 %
01.03.2017 10:20 7,1 C 10,0 C 6,1 C 83 % 0 lf 999,6 hPa 0,0 l/m 2 min 0 min 204 W/m 25,1 km/h (4 Bft) 97,87 %
01.03.2017 10:22 7,1 C 10,6 C 6,1 C 83 % 0 lf 999,7 hPa 0,0 l/m 2 min 0 min 210 W/m 25,1 km/h (4 Bft) 95,74 %
01.03.2017 10:24 7,2 C 11,1 C 6,1 C 83 % 0 lf 999,7 hPa 0,0 l/m 2 min 0 min 314 W/m 41,8 km/h (6 Bft) 93,48 %
01.03.2017 10:26 7,2 C 11,1 C 6,1 C 83 % 0 lf 999,7 hPa 0,0 l/m 2 min 0 min 265 W/m 31,4 km/h (5 Bft) 100,00 %
01.03.2017 10:28 7,2 C 11,7 C 6,7 C 83 % 0 lf 999,7 hPa 0,0 l/m 2 min 0 min 279 W/m 31,4 km/h (5 Bft) 95,74 %
01.03.2017 10:30 7,3 C 12,2 C 6,7 C 83 % 0 lf 999,9 hPa 0,0 l/m 2 min 0 min 404 W/m 39,7 km/h (6 Bft) 95,74 %
01.03.2017 10:32 7,3 C 13,3 C 7,2 C 83 % 0 lf 999,9 hPa 0,0 l/m 2 min 0 min 454 W/m 31,4 km/h (5 Bft) 91,49 %
01.03.2017 10:34 7,4 C 13,3 C 7,2 C 82 % 0 lf 999,9 hPa 0,0 l/m 2 min 0 min 457 W/m 33,5 km/h (5 Bft) 95,74 %
01.03.2017 10:36 7,5 C 13,9 C 7,2 C 82 % 0 lf 999,9 hPa 0,0 l/m 2 min 0 min 483 W/m 29,3 km/h (5 Bft) 97,83 %
01.03.2017 10:38 7,6 C 13,9 C 7,2 C 82 % 0 lf 999,9 hPa 0,0 l/m 2 min 0 min 434 W/m 27,2 km/h (4 Bft) 93,62 %
01.03.2017 10:40 7,7 C 13,3 C 7,2 C 81 % 0 lf 999,9 hPa 0,0 l/m 2 min 0 min 437 W/m 33,5 km/h (5 Bft) 97,87 %
01.03.2017 10:42 7,7 C 13,3 C 7,2 C 81 % 0 lf 1000,0 hPa 0,0 l/m 2 min 0 min 384 W/m 23,0 km/h (4 Bft) 89,36 %
01.03.2017 10:44 7,8 C 14,4 C 7,8 C 81 % 0 lf 1000,0 hPa 0,0 l/m 2 min 0 min 411 W/m 16,7 km/h (3 Bft) 97,87 %
01.03.2017 10:46 7,9 C 15,6 C 7,8 C 81 % 0 lf 1000,0 hPa 0,0 l/m 2 min 0 min 475 W/m 29,3 km/h (5 Bft) 97,87 %
01.03.2017 10:48 7,9 C 15,6 C 7,8 C 80 % 0 lf 1000,0 hPa 0,0 l/m 2 min 0 min 523 W/m 31,4 km/h (5 Bft) 93,48 %
01.03.2017 10:50 8,0 C 15,6 C 8,3 C 79 % 0 lf 1000,0 hPa 0,0 l/m 2 min 0 min 578 W/m 29,3 km/h (5 Bft) 91,53 %
01.03.2017 10:52 8,1 C 13,9 C 7,8 C 79 % 0 lf 1000,1 hPa 0,0 l/m 2 min 0 min 567 W/m 33,5 km/h (5 Bft) 94,29 %
01.03.2017 10:54 8,1 C 12,2 C 7,8 C 79 % 0 lf 1000,1 hPa 0,0 l/m 2 min 0 min 408 W/m 31,4 km/h (5 Bft) 95,74 %
01.03.2017 10:56 8,1 C 12,2 C 8,3 C 78 % 0 lf 1000,2 hPa 0,0 l/m 2 min 0 min 344 W/m 33,5 km/h (5 Bft) 91,49 %
01.03.2017 10:58 8,1 C 12,2 C 8,3 C 77 % 0 lf 1000,1 hPa 0,0 l/m 2 min 0 min 336 W/m 25,1 km/h (4 Bft) 89,36 %
01.03.2017 11:00 8,2 C 12,2 C 8,3 C 77 % 0 lf 1000,1 hPa 0,0 l/m 2 min 0 min 336 W/m 35,6 km/h (5 Bft) 91,30 %
01.03.2017 11:02 8,2 C 11,1 C 7,8 C 77 % 0 lf 1000,2 hPa 0,0 l/m 2 min 0 min 234 W/m 31,4 km/h (5 Bft) 93,62 %
01.03.2017 11:04 8,2 C 11,7 C 8,3 C 77 % 0 lf 1000,2 hPa 0,0 l/m 2 min 0 min 278 W/m 29,3 km/h (5 Bft) 93,62 %
01.03.2017 11:06 8,2 C 11,1 C 8,3 C 77 % 0 lf 1000,3 hPa 0,0 l/m 2 min 0 min 279 W/m 29,3 km/h (5 Bft) 93,48 %
01.03.2017 11:08 8,2 C 12,2 C 8,9 C 77 % 0 lf 1000,3 hPa 0,0 l/m 2 min 0 min 272 W/m 25,1 km/h (4 Bft) 89,36 %
01.03.2017 11:10 8,2 C 12,2 C 8,9 C 77 % 0 lf 1000,2 hPa 0,0 l/m 2 min 0 min 272 W/m 31,4 km/h (5 Bft) 93,62 %
01.03.2017 11:12 8,2 C 11,7 C 8,3 C 77 % 0 lf 1000,3 hPa 0,0 l/m 0 min 0 min 232 W/m 27,2 km/h (4 Bft) 93,48 %
01.03.2017 11:14 8,2 C 10,6 C 7,8 C 76 % 0 lf 1000,3 hPa 0,0 l/m 0 min 0 min 209 W/m 37,7 km/h (5 Bft) 93,62 %
01.03.2017 11:16 8,2 C 10,0 C 7,8 C 76 % 0 lf 1000,4 hPa 0,0 l/m 0 min 0 min 195 W/m 23,0 km/h (4 Bft) 87,23 %
01.03.2017 11:18 8,2 C 10,0 C 7,8 C 76 % 0 lf 1000,5 hPa 0,0 l/m 0 min 0 min 213 W/m 25,1 km/h (4 Bft) 91,49 %
01.03.2017 11:20 8,2 C 10,6 C 7,8 C 76 % 0 lf 1000,6 hPa 0,0 l/m 0 min 0 min 214 W/m 23,0 km/h (4 Bft) 89,66 %
01.03.2017 11:22 8,2 C 10,6 C 8,3 C 76 % 0 lf 1000,6 hPa 0,0 l/m 0 min 0 min 206 W/m 25,1 km/h (4 Bft) 91,67 %
01.03.2017 11:24 8,2 C 10,6 C 8,3 C 76 % 0 lf 1000,5 hPa 0,0 l/m 0 min 0 min 235 W/m 23,0 km/h (4 Bft) 95,65 %
01.03.2017 11:26 8,2 C 11,1 C 8,9 C 77 % 0 lf 1000,5 hPa 0,0 l/m 2 min 0 min 271 W/m 20,9 km/h (4 Bft) 93,62 %
01.03.2017 11:28 8,2 C 11,7 C 8,9 C 77 % 0 lf 1000,5 hPa 0,0 l/m 2 min 0 min 278 W/m 14,6 km/h (3 Bft) 95,74 %
01.03.2017 11:30 8,2 C 11,1 C 8,9 C 77 % 0 lf 1000,5 hPa 0,0 l/m 0 min 0 min 220 W/m 29,3 km/h (5 Bft) 93,62 %
01.03.2017 11:32 8,2 C 10,6 C 8,3 C 76 % 0 lf 1000,5 hPa 0,0 l/m 0 min 0 min 202 W/m 27,2 km/h (4 Bft) 93,62 %
01.03.2017 11:34 8,2 C 10,6 C 8,3 C 76 % 0 lf 1000,6 hPa 0,0 l/m 0 min 0 min 163 W/m 20,9 km/h (4 Bft) 93,48 %
01.03.2017 11:36 8,2 C 10,0 C 8,3 C 76 % 0 lf 1000,7 hPa 0,0 l/m 0 min 0 min 145 W/m 20,9 km/h (4 Bft) 95,74 %
01.03.2017 11:38 8,2 C 9,4 C 7,8 C 76 % 0 lf 1000,8 hPa 0,0 l/m 0 min 0 min 136 W/m 33,5 km/h (5 Bft) 97,87 %
01.03.2017 11:40 8,2 C 8,9 C 7,8 C 76 % 0 lf 1000,8 hPa 0,0 l/m 0 min 0 min 144 W/m 35,6 km/h (5 Bft) 91,49 %
01.03.2017 11:42 8,1 C 8,9 C 7,8 C 75 % 0 lf 1000,8 hPa 0,0 l/m 0 min 0 min 134 W/m 31,4 km/h (5 Bft) 100,00 %
01.03.2017 11:44 8,1 C 8,9 C 7,2 C 75 % 0 lf 1000,8 hPa 0,0 l/m 0 min 0 min 112 W/m 35,6 km/h (5 Bft) 97,87 %
01.03.2017 11:46 8,0 C 8,9 C 7,2 C 75 % 0 lf 1000,8 hPa 0,0 l/m 0 min 0 min 113 W/m 27,2 km/h (4 Bft) 97,83 %
01.03.2017 11:48 8,0 C 8,9 C 7,2 C 75 % 0 lf 1000,8 hPa 0,0 l/m 0 min 0 min 113 W/m 27,2 km/h (4 Bft) 95,74 %
01.03.2017 11:50 7,9 C 8,9 C 7,2 C 75 % 0 lf 1000,8 hPa 0,0 l/m 0 min 0 min 95 W/m 27,2 km/h (4 Bft) 98,31 %
01.03.2017 11:52 7,9 C 8,9 C 7,2 C 76 % 0 lf 1000,9 hPa 0,0 l/m 0 min 0 min 104 W/m 23,0 km/h (4 Bft) 97,14 %
01.03.2017 11:54 7,9 C 8,9 C 7,2 C 76 % 0 lf 1000,8 hPa 0,0 l/m 0 min 0 min 108 W/m 23,0 km/h (4 Bft) 97,87 %
01.03.2017 11:56 7,9 C 8,3 C 7,2 C 77 % 0 lf 1000,9 hPa 0,0 l/m 0 min 0 min 108 W/m 27,2 km/h (4 Bft) 95,74 %
01.03.2017 11:58 7,9 C 8,9 C 7,2 C 77 % 0 lf 1000,9 hPa 0,0 l/m 0 min 0 min 126 W/m 27,2 km/h (4 Bft) 95,65 %
01.03.2017 12:00 7,9 C 8,9 C 7,2 C 77 % 0 lf 1000,9 hPa 0,0 l/m 0 min 0 min 132 W/m 23,0 km/h (4 Bft) 97,87 %
01.03.2017 12:02 7,9 C 8,9 C 7,8 C 78 % 0 lf 1000,9 hPa 0,0 l/m 0 min 0 min 166 W/m 25,1 km/h (4 Bft) 100,00 %
01.03.2017 12:04 7,9 C 9,4 C 7,8 C 78 % 0 lf 1000,9 hPa 0,0 l/m 0 min 0 min 198 W/m 27,2 km/h (4 Bft) 95,83 %
01.03.2017 12:06 7,9 C 9,4 C 7,8 C 78 % 0 lf 1000,9 hPa 0,0 l/m 0 min 0 min 202 W/m 29,3 km/h (5 Bft) 95,74 %
01.03.2017 12:08 7,9 C 9,4 C 7,8 C 78 % 0 lf 1000,8 hPa 0,0 l/m 0 min 0 min 211 W/m 25,1 km/h (4 Bft) 97,87 %
01.03.2017 12:10 7,9 C 9,4 C 7,8 C 79 % 0 lf 1000,9 hPa 0,0 l/m 0 min 0 min 240 W/m 35,6 km/h (5 Bft) 97,87 %
01.03.2017 12:12 7,9 C 10,0 C 8,3 C 79 % 0 lf 1000,8 hPa 0,0 l/m 2 min 0 min 299 W/m 25,1 km/h (4 Bft) 95,74 %
01.03.2017 12:14 7,9 C 10,0 C 8,3 C 79 % 0 lf 1000,9 hPa 0,0 l/m 2 min 0 min 261 W/m 27,2 km/h (4 Bft) 97,83 %
01.03.2017 12:16 7,9 C 9,4 C 8,3 C 79 % 0 lf 1000,9 hPa 0,0 l/m 0 min 0 min 179 W/m 27,2 km/h (4 Bft) 97,87 %
01.03.2017 12:18 7,9 C 9,4 C 7,8 C 80 % 0 lf 1000,9 hPa 0,0 l/m 0 min 0 min 148 W/m 20,9 km/h (4 Bft) 97,87 %
01.03.2017 12:20 7,9 C 8,9 C 7,8 C 80 % 0 lf 1001,0 hPa 0,0 l/m 0 min 0 min 124 W/m 27,2 km/h (4 Bft) 97,87 %
01.03.2017 12:22 7,9 C 8,9 C 7,8 C 80 % 0 lf 1001,1 hPa 0,0 l/m 0 min 0 min 120 W/m 31,4 km/h (5 Bft) 95,74 %
01.03.2017 12:24 7,9 C 8,3 C 7,2 C 80 % 3 lf 1001,1 hPa 0,0 l/m 0 min 2 min 116 W/m 33,5 km/h (5 Bft) 97,87 %
01.03.2017 12:26 7,8 C 8,3 C 7,2 C 80 % 1 lf 1001,1 hPa 0,0 l/m 0 min 2 min 122 W/m 29,3 km/h (5 Bft) 97,83 %
01.03.2017 12:28 7,8 C 8,3 C 7,2 C 81 % 0 lf 1001,2 hPa 0,0 l/m 0 min 0 min 143 W/m 18,8 km/h (3 Bft) 95,74 %
01.03.2017 12:30 7,8 C 8,9 C 7,2 C 82 % 0 lf 1001,2 hPa 0,0 l/m 0 min 2 min 185 W/m 29,3 km/h (5 Bft) 95,74 %
01.03.2017 12:32 7,8 C 8,9 C 7,8 C 82 % 0 lf 1001,2 hPa 0,0 l/m 0 min 0 min 244 W/m 31,4 km/h (5 Bft) 97,87 %
01.03.2017 12:34 7,8 C 8,9 C 7,8 C 82 % 1 lf 1001,2 hPa 0,0 l/m 0 min 2 min 234 W/m 33,5 km/h (5 Bft) 97,87 %
01.03.2017 12:36 7,7 C 8,9 C 7,8 C 82 % 0 lf 1001,2 hPa 0,0 l/m 0 min 0 min 233 W/m 43,9 km/h (6 Bft) 95,74 %
01.03.2017 12:38 7,7 C 8,9 C 7,8 C 82 % 0 lf 1001,1 hPa 0,0 l/m 0 min 0 min 241 W/m 27,2 km/h (4 Bft) 100,00 %
01.03.2017 12:40 7,7 C 10,6 C 7,8 C 82 % 0 lf 1001,0 hPa 0,0 l/m 2 min 0 min 336 W/m 27,2 km/h (4 Bft) 95,74 %
01.03.2017 12:42 7,7 C 10,6 C 7,8 C 83 % 0 lf 1001,1 hPa 0,0 l/m 2 min 0 min 397 W/m 37,7 km/h (5 Bft) 91,49 %
01.03.2017 12:44 7,7 C 10,6 C 7,8 C 82 % 0 lf 1001,2 hPa 0,0 l/m 2 min 0 min 318 W/m 31,4 km/h (5 Bft) 100,00 %
01.03.2017 12:46 7,7 C 10,6 C 8,3 C 82 % 0 lf 1001,2 hPa 0,0 l/m 2 min 0 min 306 W/m 31,4 km/h (5 Bft) 100,00 %
01.03.2017 12:48 7,7 C 11,1 C 8,3 C 82 % 0 lf 1001,2 hPa 0,0 l/m 2 min 0 min 309 W/m 27,2 km/h (4 Bft) 100,00 %
01.03.2017 12:50 7,8 C 11,1 C 7,8 C 82 % 0 lf 1001,2 hPa 0,0 l/m 0 min 0 min 221 W/m 25,1 km/h (4 Bft) 100,00 %
01.03.2017 12:52 7,8 C 11,7 C 7,8 C 83 % 0 lf 1001,1 hPa 0,0 l/m 0 min 0 min 226 W/m 31,4 km/h (5 Bft) 100,00 %
01.03.2017 12:54 7,8 C 10,6 C 7,2 C 83 % 0 lf 1001,2 hPa 0,0 l/m 0 min 0 min 198 W/m 31,4 km/h (5 Bft) 100,00 %
01.03.2017 12:56 7,8 C 10,6 C 7,2 C 82 % 0 lf 1001,1 hPa 0,0 l/m 0 min 0 min 156 W/m 25,1 km/h (4 Bft) 97,87 %
01.03.2017 12:58 7,7 C 10,0 C 6,7 C 82 % 0 lf 1001,1 hPa 0,0 l/m 0 min 0 min 147 W/m 33,5 km/h (5 Bft) 93,62 %
01.03.2017 13:00 7,7 C 12,2 C 7,2 C 82 % 0 lf 1001,2 hPa 0,0 l/m 0 min 0 min 142 W/m 23,0 km/h (4 Bft) 97,83 %
01.03.2017 13:02 7,8 C 14,4 C 7,2 C 83 % 0 lf 1001,1 hPa 0,0 l/m 2 min 0 min 578 W/m 27,2 km/h (4 Bft) 100,00 %
01.03.2017 13:04 7,9 C 15,0 C 7,8 C 83 % 0 lf 1001,2 hPa 0,0 l/m 2 min 0 min 547 W/m 27,2 km/h (4 Bft) 100,00 %
01.03.2017 13:06 7,9 C 13,9 C 7,8 C 83 % 0 lf 1001,2 hPa 0,0 l/m 2 min 0 min 534 W/m 31,4 km/h (5 Bft) 97,87 %
01.03.2017 13:08 8,0 C 14,4 C 7,8 C 83 % 0 lf 1001,2 hPa 0,0 l/m 2 min 0 min 326 W/m 16,7 km/h (3 Bft) 100,00 %
01.03.2017 13:10 8,0 C 13,9 C 7,8 C 83 % 0 lf 1001,3 hPa 0,0 l/m 0 min 0 min 111 W/m 23,0 km/h (4 Bft) 97,87 %
01.03.2017 13:12 8,1 C 12,2 C 7,8 C 83 % 0 lf 1001,2 hPa 0,0 l/m 0 min 0 min 111 W/m 25,1 km/h (4 Bft) 97,87 %
01.03.2017 13:14 8,0 C 10,0 C 7,8 C 83 % 0 lf 1001,3 hPa 0,0 l/m 0 min 0 min 111 W/m 33,5 km/h (5 Bft) 95,65 %
01.03.2017 13:16 8,0 C 9,4 C 7,8 C 84 % 0 lf 1001,3 hPa 0,0 l/m 0 min 0 min 111 W/m 25,1 km/h (4 Bft) 97,87 %
01.03.2017 13:18 7,9 C 8,9 C 7,2 C 83 % 0 lf 1001,3 hPa 0,0 l/m 0 min 0 min 111 W/m 31,4 km/h (5 Bft) 95,74 %
01.03.2017 13:20 7,9 C 8,3 C 7,8 C 84 % 0 lf 1001,3 hPa 0,0 l/m 0 min 0 min 111 W/m 20,9 km/h (4 Bft) 100,00 %
01.03.2017 13:22 7,8 C 8,3 C 7,8 C 84 % 0 lf 1001,3 hPa 0,0 l/m 0 min 0 min 111 W/m 29,3 km/h (5 Bft) 93,62 %
01.03.2017 13:24 7,8 C 8,3 C 7,2 C 84 % 0 lf 1001,2 hPa 0,0 l/m 0 min 0 min 111 W/m 29,3 km/h (5 Bft) 97,83 %
01.03.2017 13:26 7,7 C 8,3 C 7,2 C 84 % 0 lf 1001,2 hPa 0,0 l/m 0 min 0 min 111 W/m 23,0 km/h (4 Bft) 93,62 %
01.03.2017 13:28 7,7 C 8,9 C 7,2 C 84 % 0 lf 1001,2 hPa 0,0 l/m 0 min 0 min 111 W/m 27,2 km/h (4 Bft) 95,74 %
01.03.2017 13:30 7,7 C 9,4 C 7,2 C 84 % 0 lf 1001,1 hPa 0,0 l/m 0 min 0 min 111 W/m 25,1 km/h (4 Bft) 95,74 %
01.03.2017 13:32 7,6 C 10,0 C 7,8 C 84 % 0 lf 1001,0 hPa 0,0 l/m 0 min 0 min 111 W/m 18,8 km/h (3 Bft) 97,87 %
01.03.2017 13:34 7,6 C 10,0 C 7,8 C 85 % 0 lf 1001,0 hPa 0,0 l/m 0 min 0 min 111 W/m 20,9 km/h (4 Bft) 97,87 %
01.03.2017 13:36 7,6 C 9,4 C 7,8 C 85 % 0 lf 1001,1 hPa 0,0 l/m 0 min 0 min 111 W/m 18,8 km/h (3 Bft) 95,65 %
01.03.2017 13:38 7,6 C 9,4 C 7,2 C 85 % 0 lf 1001,1 hPa 0,0 l/m 0 min 0 min 111 W/m 23,0 km/h (4 Bft) 100,00 %
01.03.2017 13:40 7,6 C 8,9 C 7,2 C 85 % 0 lf 1001,1 hPa 0,0 l/m 0 min 0 min 111 W/m 20,9 km/h (4 Bft) 91,49 %
01.03.2017 13:42 7,6 C 8,9 C 7,2 C 85 % 0 lf 1001,2 hPa 0,0 l/m 0 min 0 min 111 W/m 31,4 km/h (5 Bft) 97,87 %
01.03.2017 13:44 7,5 C 8,3 C 7,2 C 85 % 0 lf 1001,2 hPa 0,0 l/m 0 min 0 min 111 W/m 31,4 km/h (5 Bft) 91,49 %
01.03.2017 13:46 7,5 C 8,3 C 7,2 C 84 % 0 lf 1001,2 hPa 0,0 l/m 0 min 0 min 111 W/m 27,2 km/h (4 Bft) 95,74 %
01.03.2017 13:48 7,4 C 8,3 C 7,2 C 84 % 0 lf 1001,2 hPa 0,0 l/m 0 min 0 min 111 W/m 23,0 km/h (4 Bft) 93,48 %
01.03.2017 13:50 7,4 C 8,3 C 7,2 C 84 % 0 lf 1001,3 hPa 0,0 l/m 0 min 0 min 111 W/m 20,9 km/h (4 Bft) 95,74 %
01.03.2017 13:52 7,4 C 8,3 C 6,7 C 85 % 0 lf 1001,3 hPa 0,0 l/m 0 min 0 min 111 W/m 31,4 km/h (5 Bft) 93,62 %
01.03.2017 13:54 7,3 C 7,8 C 6,7 C 85 % 0 lf 1001,3 hPa 0,0 l/m 0 min 0 min 111 W/m 27,2 km/h (4 Bft) 95,74 %
01.03.2017 13:56 7,3 C 7,8 C 6,7 C 85 % 0 lf 1001,4 hPa 0,0 l/m 0 min 0 min 111 W/m 31,4 km/h (5 Bft) 95,74 %
01.03.2017 13:58 7,2 C 7,2 C 6,7 C 85 % 0 lf 1001,4 hPa 0,0 l/m 0 min 0 min 111 W/m 27,2 km/h (4 Bft) 91,49 %
01.03.2017 14:00 7,2 C 7,2 C 6,1 C 86 % 1 lf 1001,3 hPa 0,0 l/m 0 min 2 min 111 W/m 25,1 km/h (4 Bft) 93,48 %
01.03.2017 14:02 7,1 C 7,2 C 6,1 C 86 % 3 lf 1001,3 hPa 0,0 l/m 0 min 2 min 111 W/m 18,8 km/h (3 Bft) 93,62 %
01.03.2017 14:04 7,1 C 7,2 C 6,1 C 87 % 4 lf 1001,3 hPa 0,0 l/m 0 min 2 min 111 W/m 25,1 km/h (4 Bft) 93,62 %
01.03.2017 14:06 7,1 C 7,2 C 6,1 C 87 % 7 lf 1001,3 hPa 0,0 l/m 0 min 2 min 111 W/m 25,1 km/h (4 Bft) 91,49 %
01.03.2017 14:08 7,0 C 7,2 C 6,1 C 87 % 11 lf 1001,3 hPa 0,0 l/m 0 min 2 min 111 W/m 20,9 km/h (4 Bft) 93,62 %
01.03.2017 14:10 6,9 C 7,2 C 5,6 C 87 % 10 lf 1001,3 hPa 0,0 l/m 0 min 2 min 111 W/m 31,4 km/h (5 Bft) 91,49 %
01.03.2017 14:12 6,9 C 7,2 C 5,6 C 88 % 12 lf 1001,2 hPa 0,0 l/m 0 min 2 min 111 W/m 20,9 km/h (4 Bft) 93,48 %
01.03.2017 14:14 6,8 C 7,2 C 6,1 C 88 % 9 lf 1001,3 hPa 0,0 l/m 0 min 0 min 111 W/m 31,4 km/h (5 Bft) 91,49 %
01.03.2017 14:16 6,8 C 7,2 C 6,1 C 88 % 4 lf 1001,2 hPa 0,0 l/m 0 min 0 min 111 W/m 25,1 km/h (4 Bft) 91,49 %
01.03.2017 14:18 6,7 C 7,2 C 6,1 C 88 % 3 lf 1001,2 hPa 0,0 l/m 0 min 0 min 111 W/m 23,0 km/h (4 Bft) 95,74 %
01.03.2017 14:20 6,7 C 7,2 C 6,1 C 88 % 2 lf 1001,2 hPa 0,0 l/m 0 min 0 min 111 W/m 23,0 km/h (4 Bft) 89,36 %
01.03.2017 14:22 6,7 C 6,7 C 5,6 C 88 % 15 lf 1001,3 hPa 0,0 l/m 0 min 2 min 111 W/m 27,2 km/h (4 Bft) 91,30 %
01.03.2017 14:24 6,7 C 6,1 C 5,0 C 88 % 15 lf 1001,4 hPa 0,2 l/m 0 min 2 min 111 W/m 27,2 km/h (4 Bft) 91,49 %
01.03.2017 14:26 6,7 C 6,1 C 5,0 C 88 % 15 lf 1001,3 hPa 0,0 l/m 0 min 2 min 111 W/m 29,3 km/h (5 Bft) 93,62 %
01.03.2017 14:28 6,6 C 6,1 C 4,4 C 89 % 15 lf 1001,3 hPa 0,0 l/m 0 min 2 min 111 W/m 33,5 km/h (5 Bft) 93,62 %
01.03.2017 14:30 6,6 C 5,6 C 4,4 C 89 % 15 lf 1001,3 hPa 0,0 l/m 0 min 2 min 111 W/m 29,3 km/h (5 Bft) 95,74 %
01.03.2017 14:32 6,5 C 5,6 C 4,4 C 89 % 15 lf 1001,3 hPa 0,0 l/m 0 min 2 min 111 W/m 25,1 km/h (4 Bft) 93,62 %
01.03.2017 14:34 6,4 C 6,1 C 5,0 C 89 % 15 lf 1001,3 hPa 0,0 l/m 0 min 2 min 111 W/m 20,9 km/h (4 Bft) 91,30 %
01.03.2017 14:36 6,4 C 6,1 C 5,0 C 89 % 15 lf 1001,3 hPa 0,0 l/m 0 min 2 min 111 W/m 20,9 km/h (4 Bft) 93,62 %
01.03.2017 14:38 6,4 C 5,6 C 4,4 C 89 % 15 lf 1001,3 hPa 0,0 l/m 0 min 2 min 111 W/m 37,7 km/h (5 Bft) 97,87 %
01.03.2017 14:40 6,4 C 5,6 C 4,4 C 89 % 15 lf 1001,2 hPa 0,0 l/m 0 min 2 min 111 W/m 37,7 km/h (5 Bft) 95,74 %
01.03.2017 14:42 6,3 C 5,6 C 4,4 C 89 % 15 lf 1001,3 hPa 0,2 l/m 0 min 2 min 111 W/m 37,7 km/h (5 Bft) 95,74 %
01.03.2017 14:44 6,3 C 5,6 C 4,4 C 89 % 15 lf 1001,1 hPa 0,0 l/m 0 min 2 min 111 W/m 27,2 km/h (4 Bft) 95,74 %
01.03.2017 14:46 6,2 C 6,1 C 5,0 C 89 % 15 lf 1001,0 hPa 0,0 l/m 0 min 2 min 111 W/m 23,0 km/h (4 Bft) 95,65 %
01.03.2017 14:48 6,3 C 6,1 C 5,0 C 90 % 15 lf 1001,1 hPa 0,0 l/m 0 min 2 min 111 W/m 25,1 km/h (4 Bft) 95,74 %
01.03.2017 14:50 6,3 C 6,7 C 5,6 C 90 % 15 lf 1001,2 hPa 0,0 l/m 0 min 0 min 111 W/m 23,0 km/h (4 Bft) 93,62 %
01.03.2017 14:52 6,4 C 7,2 C 5,6 C 90 % 15 lf 1001,1 hPa 0,0 l/m 0 min 2 min 111 W/m 18,8 km/h (3 Bft) 97,87 %
01.03.2017 14:54 6,4 C 7,8 C 5,6 C 90 % 15 lf 1001,1 hPa 0,0 l/m 0 min 0 min 111 W/m 23,0 km/h (4 Bft) 97,87 %
01.03.2017 14:56 6,6 C 9,4 C 6,1 C 90 % 15 lf 1001,1 hPa 0,0 l/m 0 min 0 min 111 W/m 18,8 km/h (3 Bft) 95,74 %
01.03.2017 14:58 6,7 C 10,6 C 6,7 C 90 % 15 lf 1001,1 hPa 0,0 l/m 0 min 0 min 111 W/m 20,9 km/h (4 Bft) 100,00 %
01.03.2017 15:00 6,8 C 11,1 C 6,7 C 90 % 15 lf 1001,1 hPa 0,0 l/m 0 min 0 min 111 W/m 23,0 km/h (4 Bft) 95,74 %
01.03.2017 15:02 6,9 C 10,6 C 6,1 C 90 % 15 lf 1001,0 hPa 0,0 l/m 0 min 2 min 111 W/m 27,2 km/h (4 Bft) 95,74 %
01.03.2017 15:04 6,9 C 10,6 C 6,1 C 89 % 15 lf 1001,1 hPa 0,0 l/m 2 min 2 min 547 W/m 18,8 km/h (3 Bft) 93,62 %
01.03.2017 15:06 7,0 C 10,6 C 6,1 C 89 % 15 lf 1001,1 hPa 0,0 l/m 2 min 0 min 566 W/m 25,1 km/h (4 Bft) 98,15 %
01.03.2017 15:08 7,1 C 11,1 C 5,6 C 88 % 14 lf 1001,1 hPa 0,0 l/m 2 min 0 min 541 W/m 20,9 km/h (4 Bft) 97,87 %
01.03.2017 15:10 7,2 C 11,1 C 5,6 C 88 % 12 lf 1001,0 hPa 0,0 l/m 2 min 0 min 528 W/m 18,8 km/h (3 Bft) 97,87 %
01.03.2017 15:12 7,2 C 11,1 C 5,6 C 88 % 9 lf 1001,1 hPa 0,0 l/m 2 min 0 min 501 W/m 12,6 km/h (3 Bft) 97,87 %
01.03.2017 15:14 7,3 C 10,0 C 6,1 C 87 % 4 lf 1001,1 hPa 0,0 l/m 2 min 0 min 502 W/m 16,7 km/h (3 Bft) 95,65 %
01.03.2017 15:16 7,3 C 10,0 C 5,6 C 87 % 3 lf 1001,0 hPa 0,0 l/m 2 min 2 min 506 W/m 23,0 km/h (4 Bft) 100,00 %
01.03.2017 15:18 7,4 C 10,6 C 6,1 C 87 % 1 lf 1001,0 hPa 0,0 l/m 2 min 0 min 495 W/m 14,6 km/h (3 Bft) 100,00 %
01.03.2017 15:20 7,4 C 11,1 C 6,1 C 87 % 0 lf 1001,0 hPa 0,0 l/m 2 min 0 min 514 W/m 18,8 km/h (3 Bft) 97,87 %
01.03.2017 15:22 7,5 C 11,1 C 6,1 C 88 % 0 lf 1001,0 hPa 0,0 l/m 2 min 0 min 478 W/m 14,6 km/h (3 Bft) 95,74 %
01.03.2017 15:24 7,6 C 11,1 C 6,1 C 87 % 0 lf 1001,0 hPa 0,0 l/m 2 min 0 min 480 W/m 20,9 km/h (4 Bft) 100,00 %
01.03.2017 15:26 7,7 C 11,1 C 6,1 C 87 % 0 lf 1001,0 hPa 0,0 l/m 2 min 0 min 472 W/m 14,6 km/h (3 Bft) 100,00 %
01.03.2017 15:28 7,7 C 11,1 C 6,7 C 87 % 0 lf 1001,0 hPa 0,0 l/m 2 min 0 min 478 W/m 16,7 km/h (3 Bft) 100,00 %
01.03.2017 15:30 7,7 C 10,6 C 6,7 C 87 % 0 lf 1001,0 hPa 0,0 l/m 2 min 0 min 496 W/m 18,8 km/h (3 Bft) 97,87 %
01.03.2017 15:32 7,8 C 11,1 C 6,7 C 87 % 0 lf 1001,0 hPa 0,0 l/m 2 min 0 min 505 W/m 12,6 km/h (3 Bft) 97,87 %
01.03.2017 15:34 7,8 C 11,1 C 6,7 C 88 % 0 lf 1001,0 hPa 0,0 l/m 2 min 0 min 454 W/m 14,6 km/h (3 Bft) 97,87 %
01.03.2017 15:36 7,8 C 10,6 C 6,7 C 87 % 0 lf 1000,9 hPa 0,0 l/m 2 min 0 min 435 W/m 20,9 km/h (4 Bft) 97,87 %
01.03.2017 15:38 7,9 C 10,6 C 6,7 C 87 % 0 lf 1000,9 hPa 0,0 l/m 2 min 0 min 254 W/m 20,9 km/h (4 Bft) 100,00 %
01.03.2017 15:40 7,9 C 10,6 C 6,7 C 87 % 0 lf 1000,9 hPa 0,0 l/m 2 min 0 min 233 W/m 23,0 km/h (4 Bft) 100,00 %
01.03.2017 15:42 7,9 C 10,6 C 6,7 C 87 % 0 lf 1000,9 hPa 0,0 l/m 2 min 0 min 208 W/m 18,8 km/h (3 Bft) 100,00 %
01.03.2017 15:44 7,9 C 10,6 C 6,7 C 87 % 0 lf 1000,8 hPa 0,0 l/m 2 min 0 min 180 W/m 14,6 km/h (3 Bft) 100,00 %
01.03.2017 15:46 8,0 C 10,0 C 6,7 C 87 % 0 lf 1000,9 hPa 0,0 l/m 2 min 0 min 173 W/m 14,6 km/h (3 Bft) 100,00 %
01.03.2017 15:48 8,0 C 10,0 C 6,7 C 87 % 0 lf 1000,9 hPa 0,0 l/m 2 min 0 min 173 W/m 12,6 km/h (3 Bft) 100,00 %
01.03.2017 15:50 8,1 C 10,6 C 6,7 C 87 % 0 lf 1000,8 hPa 0,0 l/m 2 min 0 min 184 W/m 10,5 km/h (2 Bft) 100,00 %
01.03.2017 15:52 8,1 C 11,1 C 6,7 C 87 % 0 lf 1000,9 hPa 0,0 l/m 2 min 2 min 201 W/m 10,5 km/h (2 Bft) 100,00 %
01.03.2017 15:54 8,1 C 10,6 C 7,2 C 87 % 0 lf 1000,9 hPa 0,0 l/m 2 min 0 min 208 W/m 10,5 km/h (2 Bft) 100,00 %
01.03.2017 15:56 8,1 C 11,1 C 7,2 C 87 % 0 lf 1000,9 hPa 0,0 l/m 2 min 0 min 202 W/m 10,5 km/h (2 Bft) 100,00 %
01.03.2017 15:58 8,2 C 10,6 C 7,2 C 87 % 0 lf 1000,8 hPa 0,0 l/m 2 min 0 min 182 W/m 14,6 km/h (3 Bft) 97,87 %
01.03.2017 16:00 8,2 C 10,6 C 7,2 C 87 % 0 lf 1000,9 hPa 0,0 l/m 2 min 0 min 172 W/m 16,7 km/h (3 Bft) 100,00 %
01.03.2017 16:02 8,2 C 10,0 C 6,7 C 87 % 0 lf 1000,9 hPa 0,0 l/m 2 min 0 min 164 W/m 18,8 km/h (3 Bft) 95,74 %
01.03.2017 16:04 8,2 C 10,0 C 6,7 C 87 % 0 lf 1000,9 hPa 0,0 l/m 2 min 0 min 158 W/m 14,6 km/h (3 Bft) 97,87 %
01.03.2017 16:06 8,2 C 9,4 C 7,2 C 87 % 0 lf 1000,8 hPa 0,0 l/m 2 min 0 min 151 W/m 10,5 km/h (2 Bft) 97,87 %
01.03.2017 16:08 8,2 C 9,4 C 7,2 C 87 % 0 lf 1000,8 hPa 0,0 l/m 0 min 0 min 137 W/m 10,5 km/h (2 Bft) 100,00 %
01.03.2017 16:10 8,2 C 9,4 C 7,2 C 87 % 0 lf 1000,8 hPa 0,0 l/m 0 min 0 min 132 W/m 10,5 km/h (2 Bft) 95,74 %
01.03.2017 16:12 8,3 C 9,4 C 7,2 C 87 % 0 lf 1000,8 hPa 0,0 l/m 0 min 0 min 134 W/m 16,7 km/h (3 Bft) 100,00 %
01.03.2017 16:14 8,3 C 9,4 C 7,2 C 86 % 0 lf 1000,8 hPa 0,0 l/m 0 min 0 min 132 W/m 12,6 km/h (3 Bft) 97,87 %
01.03.2017 16:16 8,3 C 9,4 C 7,2 C 86 % 0 lf 1000,8 hPa 0,0 l/m 0 min 0 min 122 W/m 16,7 km/h (3 Bft) 100,00 %
01.03.2017 16:18 8,3 C 8,9 C 7,2 C 86 % 0 lf 1000,7 hPa 0,0 l/m 0 min 0 min 116 W/m 23,0 km/h (4 Bft) 100,00 %
01.03.2017 16:20 8,3 C 8,9 C 7,2 C 86 % 0 lf 1000,7 hPa 0,0 l/m 0 min 0 min 116 W/m 14,6 km/h (3 Bft) 95,74 %
01.03.2017 16:22 8,3 C 8,9 C 7,2 C 86 % 0 lf 1000,7 hPa 0,0 l/m 0 min 0 min 114 W/m 16,7 km/h (3 Bft) 93,62 %
01.03.2017 16:24 8,3 C 8,9 C 7,2 C 86 % 0 lf 1000,7 hPa 0,0 l/m 0 min 0 min 113 W/m 18,8 km/h (3 Bft) 95,65 %
01.03.2017 16:26 8,3 C 8,9 C 7,2 C 86 % 0 lf 1000,6 hPa 0,0 l/m 0 min 0 min 112 W/m 25,1 km/h (4 Bft) 95,74 %
01.03.2017 16:28 8,3 C 9,4 C 7,2 C 86 % 0 lf 1000,7 hPa 0,0 l/m 0 min 0 min 108 W/m 14,6 km/h (3 Bft) 89,36 %
01.03.2017 16:29 8,3 C 9,4 C 7,2 C 85 % 0 lf 1000,7 hPa 0,0 l/m 0 min 0 min 106 W/m 10,5 km/h (2 Bft) 91,30 %
01.03.2017 16:30 8,3 C 9,4 C 7,2 C 85 % 0 lf 1000,6 hPa 0,0 l/m 0 min 0 min 102 W/m 20,9 km/h (4 Bft) 95,65 %
01.03.2017 16:31 8,3 C 9,4 C 7,2 C 85 % 0 lf 1000,6 hPa 0,0 l/m 0 min 0 min 99 W/m 16,7 km/h (3 Bft) 91,30 %
01.03.2017 16:34 8,3 C 8,9 C 7,2 C 85 % 0 lf 1000,6 hPa 0,0 l/m 0 min 0 min 101 W/m 16,7 km/h (3 Bft) 92,96 %
01.03.2017 16:36 8,3 C 9,4 C 7,2 C 85 % 0 lf 1000,6 hPa 0,0 l/m 0 min 0 min 95 W/m 18,8 km/h (3 Bft) 93,48 %
01.03.2017 16:38 8,3 C 8,9 C 7,2 C 85 % 0 lf 1000,7 hPa 0,0 l/m 0 min 0 min 92 W/m 29,3 km/h (5 Bft) 92,11 %
01.03.2017 16:40 8,3 C 8,9 C 7,2 C 84 % 0 lf 1000,7 hPa 0,0 l/m 0 min 0 min 87 W/m 25,1 km/h (4 Bft) 89,36 %
01.03.2017 16:42 8,3 C 8,9 C 7,2 C 84 % 0 lf 1000,7 hPa 0,0 l/m 0 min 0 min 85 W/m 29,3 km/h (5 Bft) 89,58 %
01.03.2017 16:44 8,3 C 8,9 C 7,2 C 84 % 0 lf 1000,6 hPa 0,0 l/m 0 min 2 min 88 W/m 25,1 km/h (4 Bft) 93,48 %
01.03.2017 16:46 8,3 C 8,9 C 7,2 C 84 % 0 lf 1000,6 hPa 0,0 l/m 0 min 0 min 82 W/m 29,3 km/h (5 Bft) 91,49 %
01.03.2017 16:48 8,3 C 8,9 C 7,2 C 84 % 0 lf 1000,6 hPa 0,0 l/m 0 min 0 min 71 W/m 23,0 km/h (4 Bft) 89,36 %
01.03.2017 16:50 8,3 C 8,3 C 6,7 C 84 % 0 lf 1000,6 hPa 0,0 l/m 0 min 0 min 52 W/m 20,9 km/h (4 Bft) 93,62 %
01.03.2017 16:52 8,3 C 8,3 C 6,7 C 84 % 3 lf 1000,6 hPa 0,0 l/m 0 min 2 min 43 W/m 27,2 km/h (4 Bft) 89,36 %
01.03.2017 16:54 8,3 C 8,3 C 6,7 C 84 % 3 lf 1000,6 hPa 0,0 l/m 0 min 2 min 38 W/m 20,9 km/h (4 Bft) 93,48 %
01.03.2017 16:56 8,2 C 8,3 C 6,1 C 84 % 1 lf 1000,7 hPa 0,0 l/m 0 min 0 min 34 W/m 20,9 km/h (4 Bft) 87,23 %
01.03.2017 16:58 8,2 C 7,8 C 6,1 C 84 % 0 lf 1000,6 hPa 0,0 l/m 0 min 0 min 33 W/m 27,2 km/h (4 Bft) 95,74 %
01.03.2017 17:00 8,2 C 8,3 C 6,1 C 84 % 0 lf 1000,7 hPa 0,0 l/m 0 min 0 min 37 W/m 31,4 km/h (5 Bft) 93,62 %
01.03.2017 17:02 8,1 C 8,3 C 6,1 C 84 % 0 lf 1000,7 hPa 0,0 l/m 0 min 0 min 44 W/m 18,8 km/h (3 Bft) 94,55 %
01.03.2017 17:04 8,1 C 8,3 C 6,7 C 84 % 0 lf 1000,6 hPa 0,0 l/m 0 min 0 min 41 W/m 20,9 km/h (4 Bft) 95,74 %
01.03.2017 17:06 8,1 C 8,3 C 6,7 C 84 % 0 lf 1000,7 hPa 0,0 l/m 0 min 0 min 36 W/m 20,9 km/h (4 Bft) 93,62 %
01.03.2017 17:08 8,0 C 8,3 C 6,7 C 84 % 0 lf 1000,7 hPa 0,0 l/m 0 min 0 min 32 W/m 23,0 km/h (4 Bft) 91,49 %
01.03.2017 17:10 8,0 C 8,3 C 6,7 C 84 % 0 lf 1000,7 hPa 0,0 l/m 0 min 0 min 33 W/m 16,7 km/h (3 Bft) 95,65 %
01.03.2017 17:12 7,9 C 8,3 C 6,7 C 84 % 0 lf 1000,7 hPa 0,0 l/m 0 min 0 min 30 W/m 23,0 km/h (4 Bft) 88,89 %
01.03.2017 17:14 7,9 C 7,8 C 6,7 C 84 % 0 lf 1000,7 hPa 0,0 l/m 0 min 0 min 26 W/m 23,0 km/h (4 Bft) 97,87 %
01.03.2017 17:16 7,9 C 7,8 C 6,7 C 84 % 0 lf 1000,6 hPa 0,0 l/m 0 min 0 min 29 W/m 20,9 km/h (4 Bft) 95,74 %
01.03.2017 17:18 7,9 C 7,8 C 6,7 C 84 % 0 lf 1000,6 hPa 0,0 l/m 0 min 0 min 32 W/m 14,6 km/h (3 Bft) 93,62 %
01.03.2017 17:20 7,9 C 7,8 C 6,7 C 84 % 0 lf 1000,6 hPa 0,0 l/m 0 min 0 min 33 W/m 20,9 km/h (4 Bft) 95,74 %
01.03.2017 17:22 7,9 C 7,8 C 6,7 C 84 % 0 lf 1000,6 hPa 0,0 l/m 0 min 0 min 32 W/m 23,0 km/h (4 Bft) 95,65 %
01.03.2017 17:24 7,9 C 7,8 C 6,7 C 84 % 0 lf 1000,6 hPa 0,0 l/m 0 min 0 min 32 W/m 16,7 km/h (3 Bft) 100,00 %
01.03.2017 17:26 7,8 C 7,8 C 6,7 C 85 % 0 lf 1000,6 hPa 0,0 l/m 0 min 0 min 32 W/m 16,7 km/h (3 Bft) 100,00 %
01.03.2017 17:28 7,8 C 7,8 C 6,7 C 84 % 0 lf 1000,5 hPa 0,0 l/m 0 min 0 min 31 W/m 16,7 km/h (3 Bft) 97,87 %
01.03.2017 17:30 7,8 C 7,8 C 6,7 C 85 % 0 lf 1000,5 hPa 0,0 l/m 0 min 0 min 28 W/m 18,8 km/h (3 Bft) 95,74 %
01.03.2017 17:32 7,8 C 7,8 C 6,7 C 85 % 0 lf 1000,5 hPa 0,0 l/m 0 min 0 min 30 W/m 14,6 km/h (3 Bft) 100,00 %
01.03.2017 17:34 7,8 C 7,8 C 6,7 C 85 % 0 lf 1000,5 hPa 0,0 l/m 0 min 0 min 25 W/m 14,6 km/h (3 Bft) 100,00 %
01.03.2017 17:36 7,8 C 7,8 C 6,1 C 85 % 0 lf 1000,5 hPa 0,0 l/m 0 min 0 min 24 W/m 20,9 km/h (4 Bft) 100,00 %
01.03.2017 17:38 7,7 C 7,8 C 6,1 C 85 % 0 lf 1000,5 hPa 0,0 l/m 0 min 0 min 23 W/m 18,8 km/h (3 Bft) 100,00 %
01.03.2017 17:40 7,7 C 7,8 C 6,1 C 85 % 0 lf 1000,5 hPa 0,0 l/m 0 min 0 min 21 W/m 20,9 km/h (4 Bft) 95,74 %
01.03.2017 17:42 7,7 C 7,8 C 6,1 C 85 % 0 lf 1000,4 hPa 0,0 l/m 0 min 0 min 15 W/m 18,8 km/h (3 Bft) 97,87 %
01.03.2017 17:44 7,7 C 7,8 C 6,1 C 85 % 0 lf 1000,5 hPa 0,0 l/m 0 min 0 min 12 W/m 16,7 km/h (3 Bft) 93,48 %
01.03.2017 17:46 7,7 C 7,8 C 6,1 C 86 % 0 lf 1000,4 hPa 0,0 l/m 0 min 2 min 9 W/m 18,8 km/h (3 Bft) 100,00 %
01.03.2017 17:48 7,7 C 7,8 C 6,1 C 85 % 0 lf 1000,4 hPa 0,0 l/m 0 min 0 min 9 W/m 16,7 km/h (3 Bft) 97,87 %
01.03.2017 17:50 7,7 C 7,8 C 6,1 C 86 % 0 lf 1000,4 hPa 0,0 l/m 0 min 2 min 8 W/m 18,8 km/h (3 Bft) 97,87 %
01.03.2017 17:52 7,7 C 7,8 C 6,1 C 86 % 0 lf 1000,4 hPa 0,0 l/m 0 min 2 min 7 W/m 18,8 km/h (3 Bft) 95,74 %
01.03.2017 17:54 7,7 C 7,8 C 6,1 C 86 % 0 lf 1000,3 hPa 0,0 l/m 0 min 0 min 7 W/m 18,8 km/h (3 Bft) 97,87 %
01.03.2017 17:56 7,6 C 7,8 C 6,1 C 86 % 0 lf 1000,3 hPa 0,0 l/m 0 min 0 min 7 W/m 16,7 km/h (3 Bft) 97,83 %
01.03.2017 17:58 7,6 C 7,8 C 6,1 C 87 % 0 lf 1000,3 hPa 0,0 l/m 0 min 0 min 7 W/m 10,5 km/h (2 Bft) 97,87 %
01.03.2017 18:00 7,6 C 7,8 C 6,1 C 87 % 0 lf 1000,3 hPa 0,0 l/m 0 min 0 min 7 W/m 16,7 km/h (3 Bft) 95,74 %
01.03.2017 18:02 7,6 C 7,8 C 6,1 C 87 % 0 lf 1000,3 hPa 0,0 l/m 0 min 0 min 7 W/m 16,7 km/h (3 Bft) 93,62 %
01.03.2017 18:04 7,6 C 7,8 C 6,1 C 87 % 0 lf 1000,3 hPa 0,0 l/m 0 min 0 min 7 W/m 14,6 km/h (3 Bft) 100,00 %
01.03.2017 18:06 7,6 C 7,8 C 6,1 C 87 % 0 lf 1000,3 hPa 0,0 l/m 0 min 0 min 7 W/m 8,4 km/h (2 Bft) 95,74 %
01.03.2017 18:08 7,5 C 7,2 C 6,1 C 87 % 0 lf 1000,3 hPa 0,0 l/m 0 min 0 min 6 W/m 14,6 km/h (3 Bft) 93,62 %
01.03.2017 18:10 7,5 C 7,2 C 5,6 C 87 % 0 lf 1000,3 hPa 0,0 l/m 0 min 0 min 5 W/m 10,5 km/h (2 Bft) 97,87 %
01.03.2017 18:12 7,5 C 7,2 C 5,6 C 87 % 0 lf 1000,3 hPa 0,0 l/m 0 min 0 min 4 W/m 10,5 km/h (2 Bft) 97,87 %
01.03.2017 18:14 7,5 C 7,2 C 5,6 C 87 % 0 lf 1000,3 hPa 0,0 l/m 0 min 0 min 4 W/m 18,8 km/h (3 Bft) 93,62 %
01.03.2017 18:16 7,4 C 7,2 C 5,6 C 87 % 0 lf 1000,2 hPa 0,0 l/m 0 min 0 min 4 W/m 12,6 km/h (3 Bft) 97,83 %
01.03.2017 18:18 7,4 C 7,2 C 5,6 C 88 % 0 lf 1000,2 hPa 0,0 l/m 0 min 0 min 2 W/m 16,7 km/h (3 Bft) 91,49 %
01.03.2017 18:20 7,4 C 7,2 C 5,6 C 88 % 0 lf 1000,2 hPa 0,0 l/m 0 min 0 min 2 W/m 14,6 km/h (3 Bft) 93,62 %
01.03.2017 18:22 7,4 C 7,2 C 5,6 C 88 % 0 lf 1000,3 hPa 0,0 l/m 0 min 0 min 2 W/m 12,6 km/h (3 Bft) 95,74 %
01.03.2017 18:24 7,4 C 7,2 C 5,6 C 88 % 0 lf 1000,2 hPa 0,0 l/m 0 min 0 min 2 W/m 10,5 km/h (2 Bft) 95,74 %
01.03.2017 18:26 7,4 C 7,2 C 5,6 C 88 % 0 lf 1000,2 hPa 0,0 l/m 0 min 0 min 2 W/m 12,6 km/h (3 Bft) 95,74 %
01.03.2017 18:28 7,4 C 7,2 C 5,6 C 88 % 0 lf 1000,1 hPa 0,0 l/m 0 min 0 min 2 W/m 14,6 km/h (3 Bft) 95,65 %
01.03.2017 18:30 7,4 C 7,2 C 5,6 C 88 % 0 lf 1000,2 hPa 0,0 l/m 0 min 0 min 2 W/m 14,6 km/h (3 Bft) 93,62 %
01.03.2017 18:32 7,4 C 7,2 C 5,6 C 88 % 0 lf 1000,2 hPa 0,0 l/m 0 min 0 min 2 W/m 12,6 km/h (3 Bft) 95,74 %
01.03.2017 18:34 7,3 C 7,2 C 5,6 C 88 % 0 lf 1000,2 hPa 0,0 l/m 0 min 0 min 2 W/m 10,5 km/h (2 Bft) 95,74 %
01.03.2017 18:36 7,3 C 7,2 C 5,6 C 88 % 0 lf 1000,1 hPa 0,0 l/m 0 min 2 min 2 W/m 10,5 km/h (2 Bft) 89,36 %
01.03.2017 18:38 7,3 C 7,2 C 5,6 C 88 % 1 lf 1000,1 hPa 0,0 l/m 0 min 2 min 2 W/m 10,5 km/h (2 Bft) 91,49 %
01.03.2017 18:40 7,3 C 7,2 C 5,6 C 88 % 1 lf 999,9 hPa 0,0 l/m 0 min 2 min 2 W/m 12,6 km/h (3 Bft) 95,65 %
01.03.2017 18:42 7,3 C 7,2 C 5,6 C 88 % 1 lf 1000,1 hPa 0,0 l/m 0 min 2 min 2 W/m 10,5 km/h (2 Bft) 93,62 %
01.03.2017 18:44 7,3 C 7,2 C 5,6 C 89 % 0 lf 1000,2 hPa 0,0 l/m 0 min 2 min 2 W/m 14,6 km/h (3 Bft) 93,62 %
01.03.2017 18:46 7,3 C 7,2 C 5,6 C 89 % 0 lf 1000,1 hPa 0,0 l/m 0 min 0 min 2 W/m 12,6 km/h (3 Bft) 95,74 %
01.03.2017 18:48 7,3 C 7,2 C 5,6 C 89 % 0 lf 1000,2 hPa 0,0 l/m 0 min 2 min 2 W/m 14,6 km/h (3 Bft) 97,87 %
01.03.2017 18:50 7,3 C 7,2 C 5,6 C 89 % 0 lf 1000,2 hPa 0,0 l/m 0 min 0 min 2 W/m 14,6 km/h (3 Bft) 95,74 %
01.03.2017 18:52 7,3 C 7,2 C 5,6 C 89 % 0 lf 1000,1 hPa 0,0 l/m 0 min 2 min 2 W/m 18,8 km/h (3 Bft) 97,83 %
01.03.2017 18:54 7,3 C 7,2 C 5,6 C 89 % 0 lf 1000,1 hPa 0,0 l/m 0 min 2 min 2 W/m 18,8 km/h (3 Bft) 93,62 %
01.03.2017 18:56 7,3 C 7,2 C 5,6 C 89 % 1 lf 1000,0 hPa 0,0 l/m 0 min 2 min 2 W/m 14,6 km/h (3 Bft) 93,62 %
01.03.2017 18:58 7,3 C 6,7 C 5,6 C 89 % 3 lf 1000,0 hPa 0,0 l/m 0 min 2 min 2 W/m 16,7 km/h (3 Bft) 97,87 %
01.03.2017 19:00 7,2 C 6,7 C 5,0 C 89 % 3 lf 1000,0 hPa 0,0 l/m 0 min 2 min 2 W/m 23,0 km/h (4 Bft) 93,62 %
01.03.2017 19:02 7,2 C 6,7 C 5,0 C 89 % 2 lf 1000,0 hPa 0,0 l/m 0 min 2 min 2 W/m 25,1 km/h (4 Bft) 97,87 %
01.03.2017 19:04 7,2 C 6,7 C 5,0 C 89 % 3 lf 1000,0 hPa 0,0 l/m 0 min 2 min 2 W/m 23,0 km/h (4 Bft) 95,65 %
01.03.2017 19:06 7,2 C 6,7 C 5,0 C 89 % 2 lf 1000,2 hPa 0,0 l/m 0 min 2 min 2 W/m 25,1 km/h (4 Bft) 89,58 %
01.03.2017 19:08 7,2 C 6,7 C 5,0 C 88 % 1 lf 999,9 hPa 0,0 l/m 0 min 2 min 2 W/m 23,0 km/h (4 Bft) 97,62 %
01.03.2017 19:10 7,1 C 6,7 C 5,0 C 88 % 0 lf 1000,0 hPa 0,0 l/m 0 min 0 min 2 W/m 25,1 km/h (4 Bft) 95,74 %
01.03.2017 19:12 7,1 C 6,7 C 5,0 C 88 % 1 lf 999,9 hPa 0,0 l/m 0 min 2 min 2 W/m 12,6 km/h (3 Bft) 93,62 %
01.03.2017 19:14 7,1 C 6,7 C 5,0 C 88 % 0 lf 999,8 hPa 0,0 l/m 0 min 2 min 2 W/m 14,6 km/h (3 Bft) 93,62 %
01.03.2017 19:16 7,1 C 6,7 C 5,0 C 88 % 1 lf 999,9 hPa 0,0 l/m 0 min 2 min 2 W/m 14,6 km/h (3 Bft) 95,65 %
01.03.2017 19:18 7,1 C 6,7 C 5,0 C 88 % 0 lf 999,9 hPa 0,0 l/m 0 min 2 min 2 W/m 16,7 km/h (3 Bft) 97,87 %
01.03.2017 19:20 7,1 C 6,7 C 5,0 C 88 % 1 lf 999,9 hPa 0,0 l/m 0 min 2 min 2 W/m 20,9 km/h (4 Bft) 97,87 %
01.03.2017 19:22 7,1 C 6,1 C 5,0 C 88 % 3 lf 999,9 hPa 0,0 l/m 0 min 2 min 2 W/m 16,7 km/h (3 Bft) 97,87 %
01.03.2017 19:24 7,0 C 6,1 C 5,0 C 88 % 3 lf 999,8 hPa 0,0 l/m 0 min 2 min 1 W/m 14,6 km/h (3 Bft) 97,87 %
01.03.2017 19:26 7,0 C 6,1 C 5,0 C 88 % 3 lf 999,8 hPa 0,0 l/m 0 min 2 min 0 W/m 16,7 km/h (3 Bft) 95,74 %
01.03.2017 19:28 7,0 C 6,1 C 4,4 C 88 % 4 lf 999,8 hPa 0,0 l/m 0 min 2 min 0 W/m 14,6 km/h (3 Bft) 95,65 %
01.03.2017 19:30 6,9 C 6,1 C 4,4 C 88 % 9 lf 999,7 hPa 0,0 l/m 0 min 2 min 0 W/m 14,6 km/h (3 Bft) 95,74 %
01.03.2017 19:32 6,9 C 6,1 C 4,4 C 88 % 11 lf 999,7 hPa 0,0 l/m 0 min 2 min 0 W/m 8,4 km/h (2 Bft) 95,74 %
01.03.2017 19:34 6,9 C 6,1 C 4,4 C 88 % 12 lf 999,7 hPa 0,0 l/m 0 min 2 min 0 W/m 18,8 km/h (3 Bft) 93,62 %
01.03.2017 19:36 6,9 C 6,1 C 4,4 C 88 % 13 lf 999,7 hPa 0,0 l/m 0 min 2 min 0 W/m 14,6 km/h (3 Bft) 93,62 %
01.03.2017 19:38 6,9 C 6,1 C 4,4 C 89 % 13 lf 999,7 hPa 0,0 l/m 0 min 2 min 0 W/m 18,8 km/h (3 Bft) 91,49 %
01.03.2017 19:40 6,9 C 6,1 C 4,4 C 89 % 13 lf 999,6 hPa 0,2 l/m 0 min 2 min 0 W/m 16,7 km/h (3 Bft) 93,48 %
01.03.2017 19:42 6,8 C 6,1 C 4,4 C 89 % 13 lf 999,7 hPa 0,0 l/m 0 min 2 min 0 W/m 14,6 km/h (3 Bft) 93,62 %
01.03.2017 19:44 6,8 C 6,1 C 4,4 C 89 % 13 lf 999,6 hPa 0,0 l/m 0 min 2 min 0 W/m 18,8 km/h (3 Bft) 97,87 %
01.03.2017 19:46 6,8 C 5,6 C 4,4 C 89 % 14 lf 999,6 hPa 0,0 l/m 0 min 2 min 0 W/m 14,6 km/h (3 Bft) 95,74 %
01.03.2017 19:48 6,8 C 5,6 C 4,4 C 90 % 13 lf 999,6 hPa 0,0 l/m 0 min 2 min 0 W/m 16,7 km/h (3 Bft) 97,87 %
01.03.2017 19:50 6,8 C 5,6 C 4,4 C 90 % 13 lf 999,5 hPa 0,0 l/m 0 min 2 min 0 W/m 16,7 km/h (3 Bft) 97,83 %
01.03.2017 19:52 6,7 C 5,6 C 4,4 C 90 % 13 lf 999,5 hPa 0,0 l/m 0 min 2 min 0 W/m 12,6 km/h (3 Bft) 93,62 %
01.03.2017 19:54 6,7 C 5,6 C 4,4 C 90 % 13 lf 999,5 hPa 0,0 l/m 0 min 2 min 0 W/m 16,7 km/h (3 Bft) 100,00 %
01.03.2017 19:56 6,7 C 5,6 C 4,4 C 90 % 13 lf 999,5 hPa 0,0 l/m 0 min 2 min 0 W/m 14,6 km/h (3 Bft) 93,62 %
01.03.2017 19:58 6,7 C 5,6 C 4,4 C 90 % 13 lf 999,5 hPa 0,0 l/m 0 min 2 min 0 W/m 10,5 km/h (2 Bft) 95,74 %
01.03.2017 20:00 6,7 C 5,6 C 4,4 C 90 % 13 lf 999,5 hPa 0,0 l/m 0 min 2 min 0 W/m 10,5 km/h (2 Bft) 95,74 %
01.03.2017 20:02 6,6 C 5,6 C 4,4 C 91 % 13 lf 999,3 hPa 0,0 l/m 0 min 2 min 0 W/m 12,6 km/h (3 Bft) 95,65 %
01.03.2017 20:04 6,6 C 5,6 C 4,4 C 91 % 13 lf 999,2 hPa 0,0 l/m 0 min 2 min 0 W/m 14,6 km/h (3 Bft) 93,62 %
01.03.2017 20:06 6,6 C 5,6 C 4,4 C 91 % 13 lf 999,2 hPa 0,0 l/m 0 min 2 min 0 W/m 14,6 km/h (3 Bft) 93,62 %
01.03.2017 20:08 6,6 C 5,6 C 4,4 C 91 % 13 lf 999,2 hPa 0,0 l/m 0 min 2 min 0 W/m 14,6 km/h (3 Bft) 95,74 %
01.03.2017 20:10 6,6 C 5,6 C 4,4 C 91 % 13 lf 999,1 hPa 0,0 l/m 0 min 2 min 0 W/m 16,7 km/h (3 Bft) 93,62 %
01.03.2017 20:12 6,6 C 5,6 C 4,4 C 91 % 13 lf 999,1 hPa 0,0 l/m 0 min 2 min 0 W/m 12,6 km/h (3 Bft) 91,49 %
01.03.2017 20:14 6,5 C 5,6 C 4,4 C 91 % 13 lf 999,1 hPa 0,0 l/m 0 min 2 min 0 W/m 14,6 km/h (3 Bft) 93,48 %
01.03.2017 20:16 6,5 C 5,6 C 4,4 C 91 % 13 lf 999,0 hPa 0,0 l/m 0 min 2 min 0 W/m 14,6 km/h (3 Bft) 95,74 %
01.03.2017 20:18 6,4 C 5,6 C 4,4 C 92 % 13 lf 999,0 hPa 0,0 l/m 0 min 2 min 0 W/m 10,5 km/h (2 Bft) 95,74 %
01.03.2017 20:20 6,4 C 5,6 C 4,4 C 92 % 13 lf 998,9 hPa 0,0 l/m 0 min 2 min 0 W/m 14,6 km/h (3 Bft) 95,74 %
01.03.2017 20:22 6,4 C 5,6 C 4,4 C 92 % 12 lf 998,9 hPa 0,0 l/m 0 min 2 min 0 W/m 10,5 km/h (2 Bft) 93,62 %
01.03.2017 20:24 6,4 C 5,6 C 4,4 C 92 % 12 lf 998,8 hPa 0,0 l/m 0 min 2 min 0 W/m 12,6 km/h (3 Bft) 91,49 %
01.03.2017 20:26 6,4 C 5,6 C 4,4 C 92 % 12 lf 998,8 hPa 0,0 l/m 0 min 2 min 0 W/m 12,6 km/h (3 Bft) 95,65 %
01.03.2017 20:28 6,4 C 5,6 C 4,4 C 92 % 12 lf 998,8 hPa 0,2 l/m 0 min 2 min 0 W/m 8,4 km/h (2 Bft) 97,87 %
01.03.2017 20:30 6,4 C 5,6 C 4,4 C 92 % 12 lf 998,7 hPa 0,0 l/m 0 min 2 min 0 W/m 10,5 km/h (2 Bft) 95,74 %
01.03.2017 20:32 6,3 C 5,6 C 4,4 C 92 % 11 lf 998,7 hPa 0,0 l/m 0 min 2 min 0 W/m 8,4 km/h (2 Bft) 97,87 %
01.03.2017 20:34 6,3 C 5,6 C 4,4 C 92 % 11 lf 998,7 hPa 0,0 l/m 0 min 2 min 0 W/m 8,4 km/h (2 Bft) 95,74 %
01.03.2017 20:36 6,3 C 5,6 C 4,4 C 93 % 12 lf 998,6 hPa 0,0 l/m 0 min 2 min 0 W/m 8,4 km/h (2 Bft) 97,87 %
01.03.2017 20:38 6,3 C 5,6 C 4,4 C 93 % 12 lf 998,5 hPa 0,0 l/m 0 min 2 min 0 W/m 14,6 km/h (3 Bft) 97,83 %
01.03.2017 20:40 6,3 C 5,6 C 4,4 C 93 % 12 lf 998,4 hPa 0,0 l/m 0 min 2 min 0 W/m 12,6 km/h (3 Bft) 97,87 %
01.03.2017 20:42 6,2 C 5,6 C 4,4 C 93 % 12 lf 998,4 hPa 0,0 l/m 0 min 2 min 0 W/m 10,5 km/h (2 Bft) 100,00 %
01.03.2017 20:44 6,2 C 5,6 C 4,4 C 93 % 12 lf 998,4 hPa 0,0 l/m 0 min 2 min 0 W/m 14,6 km/h (3 Bft) 100,00 %
01.03.2017 20:46 6,2 C 5,6 C 4,4 C 93 % 12 lf 998,3 hPa 0,0 l/m 0 min 2 min 0 W/m 16,7 km/h (3 Bft) 100,00 %
01.03.2017 20:48 6,2 C 5,6 C 4,4 C 93 % 12 lf 998,3 hPa 0,0 l/m 0 min 2 min 0 W/m 12,6 km/h (3 Bft) 97,87 %
01.03.2017 20:50 6,2 C 5,6 C 4,4 C 93 % 12 lf 998,3 hPa 0,0 l/m 0 min 2 min 0 W/m 14,6 km/h (3 Bft) 97,87 %
01.03.2017 20:52 6,1 C 5,6 C 4,4 C 93 % 12 lf 998,3 hPa 0,0 l/m 0 min 2 min 0 W/m 14,6 km/h (3 Bft) 97,83 %
01.03.2017 20:54 6,1 C 5,6 C 4,4 C 93 % 12 lf 998,3 hPa 0,0 l/m 0 min 2 min 0 W/m 12,6 km/h (3 Bft) 100,00 %
01.03.2017 20:56 6,1 C 5,6 C 4,4 C 93 % 12 lf 998,2 hPa 0,0 l/m 0 min 0 min 0 W/m 12,6 km/h (3 Bft) 97,87 %
01.03.2017 20:58 6,1 C 5,6 C 4,4 C 93 % 12 lf 998,3 hPa 0,0 l/m 0 min 0 min 0 W/m 10,5 km/h (2 Bft) 100,00 %
01.03.2017 21:00 6,1 C 5,6 C 4,4 C 93 % 12 lf 998,2 hPa 0,0 l/m 0 min 2 min 0 W/m 8,4 km/h (2 Bft) 100,00 %
01.03.2017 21:02 6,1 C 5,6 C 4,4 C 93 % 12 lf 998,2 hPa 0,0 l/m 0 min 2 min 0 W/m 10,5 km/h (2 Bft) 97,87 %
01.03.2017 21:04 6,1 C 5,6 C 4,4 C 93 % 12 lf 998,2 hPa 0,2 l/m 0 min 2 min 0 W/m 14,6 km/h (3 Bft) 100,00 %
01.03.2017 21:06 6,1 C 5,6 C 4,4 C 93 % 12 lf 998,1 hPa 0,0 l/m 0 min 0 min 0 W/m 20,9 km/h (4 Bft) 95,74 %
01.03.2017 21:08 6,0 C 5,6 C 4,4 C 93 % 13 lf 998,0 hPa 0,0 l/m 0 min 0 min 0 W/m 16,7 km/h (3 Bft) 100,00 %
01.03.2017 21:10 6,0 C 5,6 C 4,4 C 93 % 13 lf 998,0 hPa 0,0 l/m 0 min 2 min 0 W/m 14,6 km/h (3 Bft) 97,87 %
01.03.2017 21:12 6,0 C 5,6 C 4,4 C 94 % 13 lf 998,0 hPa 0,0 l/m 0 min 2 min 0 W/m 12,6 km/h (3 Bft) 100,00 %
01.03.2017 21:14 6,0 C 5,6 C 4,4 C 94 % 13 lf 997,9 hPa 0,0 l/m 0 min 2 min 0 W/m 10,5 km/h (2 Bft) 100,00 %
01.03.2017 21:16 6,0 C 5,6 C 4,4 C 94 % 13 lf 997,9 hPa 0,0 l/m 0 min 2 min 0 W/m 14,6 km/h (3 Bft) 100,00 %
01.03.2017 21:18 5,9 C 5,6 C 4,4 C 94 % 13 lf 997,9 hPa 0,0 l/m 0 min 2 min 0 W/m 20,9 km/h (4 Bft) 95,74 %
01.03.2017 21:20 5,9 C 5,6 C 4,4 C 94 % 14 lf 997,8 hPa 0,0 l/m 0 min 0 min 0 W/m 14,6 km/h (3 Bft) 100,00 %
01.03.2017 21:22 5,9 C 5,6 C 4,4 C 94 % 14 lf 997,7 hPa 0,0 l/m 0 min 2 min 0 W/m 14,6 km/h (3 Bft) 97,87 %
01.03.2017 21:24 5,9 C 5,6 C 4,4 C 94 % 14 lf 997,6 hPa 0,0 l/m 0 min 2 min 0 W/m 20,9 km/h (4 Bft) 97,87 %
01.03.2017 21:26 5,9 C 5,6 C 4,4 C 94 % 14 lf 997,7 hPa 0,0 l/m 0 min 0 min 0 W/m 16,7 km/h (3 Bft) 97,87 %
01.03.2017 21:28 5,9 C 5,6 C 4,4 C 94 % 15 lf 997,6 hPa 0,0 l/m 0 min 0 min 0 W/m 18,8 km/h (3 Bft) 100,00 %
01.03.2017 21:30 5,9 C 5,6 C 4,4 C 94 % 15 lf 997,6 hPa 0,0 l/m 0 min 0 min 0 W/m 12,6 km/h (3 Bft) 97,87 %
01.03.2017 21:32 5,9 C 5,6 C 4,4 C 94 % 15 lf 997,6 hPa 0,0 l/m 0 min 2 min 0 W/m 14,6 km/h (3 Bft) 100,00 %
01.03.2017 21:34 5,9 C 5,6 C 4,4 C 94 % 15 lf 997,5 hPa 0,0 l/m 0 min 2 min 0 W/m 12,6 km/h (3 Bft) 100,00 %
01.03.2017 21:36 5,9 C 5,6 C 4,4 C 94 % 15 lf 997,5 hPa 0,0 l/m 0 min 2 min 0 W/m 18,8 km/h (3 Bft) 97,87 %
01.03.2017 21:38 5,9 C 5,6 C 4,4 C 94 % 15 lf 997,5 hPa 0,0 l/m 0 min 2 min 0 W/m 18,8 km/h (3 Bft) 97,87 %
01.03.2017 21:40 5,9 C 5,6 C 4,4 C 95 % 15 lf 997,4 hPa 0,0 l/m 0 min 2 min 0 W/m 18,8 km/h (3 Bft) 93,48 %
01.03.2017 21:42 5,9 C 5,6 C 4,4 C 95 % 15 lf 997,4 hPa 0,0 l/m 0 min 2 min 0 W/m 20,9 km/h (4 Bft) 95,74 %
01.03.2017 21:44 5,8 C 5,6 C 4,4 C 95 % 15 lf 997,4 hPa 0,0 l/m 0 min 2 min 0 W/m 20,9 km/h (4 Bft) 95,74 %
01.03.2017 21:46 5,8 C 5,6 C 4,4 C 95 % 15 lf 997,4 hPa 0,2 l/m 0 min 2 min 0 W/m 20,9 km/h (4 Bft) 97,87 %
01.03.2017 21:48 5,8 C 5,6 C 4,4 C 95 % 15 lf 997,5 hPa 0,0 l/m 0 min 2 min 0 W/m 16,7 km/h (3 Bft) 91,49 %
01.03.2017 21:50 5,8 C 5,6 C 4,4 C 95 % 15 lf 997,4 hPa 0,0 l/m 0 min 2 min 0 W/m 14,6 km/h (3 Bft) 95,65 %
01.03.2017 21:52 5,8 C 5,6 C 4,4 C 95 % 15 lf 997,5 hPa 0,0 l/m 0 min 2 min 0 W/m 16,7 km/h (3 Bft) 93,62 %
01.03.2017 21:54 5,8 C 5,6 C 4,4 C 95 % 15 lf 997,3 hPa 0,0 l/m 0 min 2 min 0 W/m 14,6 km/h (3 Bft) 95,74 %
01.03.2017 21:56 5,8 C 5,6 C 4,4 C 95 % 15 lf 997,3 hPa 0,0 l/m 0 min 2 min 0 W/m 16,7 km/h (3 Bft) 91,49 %
01.03.2017 21:58 5,8 C 5,6 C 4,4 C 95 % 15 lf 997,4 hPa 0,0 l/m 0 min 2 min 0 W/m 12,6 km/h (3 Bft) 93,62 %
01.03.2017 22:00 5,8 C 5,6 C 4,4 C 95 % 15 lf 997,3 hPa 0,0 l/m 0 min 2 min 0 W/m 20,9 km/h (4 Bft) 91,49 %
01.03.2017 22:02 5,8 C 5,6 C 4,4 C 95 % 15 lf 997,2 hPa 0,0 l/m 0 min 2 min 0 W/m 14,6 km/h (3 Bft) 93,48 %
01.03.2017 22:04 5,8 C 5,6 C 4,4 C 95 % 15 lf 997,2 hPa 0,2 l/m 0 min 2 min 0 W/m 14,6 km/h (3 Bft) 95,74 %
01.03.2017 22:06 5,8 C 5,6 C 4,4 C 95 % 15 lf 997,2 hPa 0,0 l/m 0 min 2 min 0 W/m 16,7 km/h (3 Bft) 93,62 %
01.03.2017 22:08 5,8 C 5,6 C 4,4 C 95 % 15 lf 997,2 hPa 0,0 l/m 0 min 2 min 0 W/m 14,6 km/h (3 Bft) 93,62 %
01.03.2017 22:10 5,8 C 5,6 C 4,4 C 95 % 15 lf 997,2 hPa 0,0 l/m 0 min 2 min 0 W/m 20,9 km/h (4 Bft) 95,74 %
01.03.2017 22:12 5,8 C 5,6 C 4,4 C 95 % 15 lf 997,2 hPa 0,0 l/m 0 min 2 min 0 W/m 14,6 km/h (3 Bft) 93,62 %
01.03.2017 22:14 5,8 C 5,6 C 4,4 C 96 % 15 lf 997,1 hPa 0,2 l/m 0 min 2 min 0 W/m 18,8 km/h (3 Bft) 93,48 %
01.03.2017 22:16 5,8 C 5,6 C 4,4 C 96 % 15 lf 997,2 hPa 0,0 l/m 0 min 2 min 0 W/m 20,9 km/h (4 Bft) 95,74 %
01.03.2017 22:18 5,8 C 5,6 C 4,4 C 96 % 15 lf 997,1 hPa 0,0 l/m 0 min 2 min 0 W/m 14,6 km/h (3 Bft) 89,36 %
01.03.2017 22:20 5,8 C 5,6 C 4,4 C 96 % 15 lf 997,1 hPa 0,0 l/m 0 min 2 min 0 W/m 14,6 km/h (3 Bft) 93,62 %
01.03.2017 22:22 5,8 C 5,6 C 4,4 C 96 % 15 lf 997,0 hPa 0,0 l/m 0 min 2 min 0 W/m 18,8 km/h (3 Bft) 95,74 %
01.03.2017 22:24 5,8 C 5,6 C 4,4 C 96 % 15 lf 996,9 hPa 0,2 l/m 0 min 2 min 0 W/m 16,7 km/h (3 Bft) 97,87 %
01.03.2017 22:26 5,7 C 5,6 C 4,4 C 96 % 15 lf 996,9 hPa 0,0 l/m 0 min 2 min 0 W/m 10,5 km/h (2 Bft) 97,83 %
01.03.2017 22:28 5,8 C 5,6 C 4,4 C 96 % 15 lf 996,9 hPa 0,0 l/m 0 min 2 min 0 W/m 16,7 km/h (3 Bft) 97,87 %
01.03.2017 22:30 5,8 C 5,6 C 4,4 C 96 % 15 lf 996,8 hPa 0,0 l/m 0 min 2 min 0 W/m 16,7 km/h (3 Bft) 97,87 %
01.03.2017 22:32 5,8 C 5,6 C 4,4 C 96 % 15 lf 996,7 hPa 0,0 l/m 0 min 2 min 0 W/m 14,6 km/h (3 Bft) 97,87 %
01.03.2017 22:34 5,8 C 5,6 C 4,4 C 96 % 15 lf 996,7 hPa 0,0 l/m 0 min 2 min 0 W/m 14,6 km/h (3 Bft) 95,74 %
01.03.2017 22:36 5,8 C 5,6 C 4,4 C 96 % 15 lf 996,7 hPa 0,0 l/m 0 min 0 min 0 W/m 16,7 km/h (3 Bft) 89,36 %
01.03.2017 22:38 5,8 C 5,6 C 4,4 C 96 % 15 lf 996,7 hPa 0,0 l/m 0 min 0 min 0 W/m 12,6 km/h (3 Bft) 93,48 %
01.03.2017 22:40 5,8 C 5,6 C 4,4 C 96 % 15 lf 996,7 hPa 0,0 l/m 0 min 2 min 0 W/m 16,7 km/h (3 Bft) 95,74 %
01.03.2017 22:42 5,8 C 5,6 C 4,4 C 96 % 15 lf 996,7 hPa 0,0 l/m 0 min 2 min 0 W/m 14,6 km/h (3 Bft) 93,62 %
01.03.2017 22:44 5,8 C 5,6 C 4,4 C 96 % 15 lf 996,7 hPa 0,0 l/m 0 min 2 min 0 W/m 12,6 km/h (3 Bft) 89,36 %
01.03.2017 22:46 5,8 C 5,6 C 4,4 C 96 % 15 lf 996,7 hPa 0,0 l/m 0 min 2 min 0 W/m 12,6 km/h (3 Bft) 95,74 %
01.03.2017 22:48 5,8 C 5,6 C 4,4 C 96 % 15 lf 996,6 hPa 0,2 l/m 0 min 2 min 0 W/m 14,6 km/h (3 Bft) 95,74 %
01.03.2017 22:50 5,8 C 5,6 C 4,4 C 96 % 15 lf 996,6 hPa 0,0 l/m 0 min 2 min 0 W/m 8,4 km/h (2 Bft) 95,65 %
01.03.2017 22:52 5,8 C 5,6 C 4,4 C 96 % 15 lf 996,5 hPa 0,0 l/m 0 min 2 min 0 W/m 14,6 km/h (3 Bft) 93,62 %
01.03.2017 22:54 5,8 C 6,1 C 4,4 C 96 % 15 lf 996,5 hPa 0,0 l/m 0 min 2 min 0 W/m 8,4 km/h (2 Bft) 93,62 %
01.03.2017 22:56 5,8 C 6,1 C 4,4 C 97 % 15 lf 996,5 hPa 0,0 l/m 0 min 2 min 0 W/m 14,6 km/h (3 Bft) 93,62 %
01.03.2017 22:58 5,8 C 6,1 C 4,4 C 97 % 15 lf 996,5 hPa 0,0 l/m 0 min 0 min 0 W/m 12,6 km/h (3 Bft) 95,74 %
01.03.2017 23:00 5,8 C 6,1 C 4,4 C 97 % 15 lf 996,5 hPa 0,0 l/m 0 min 2 min 0 W/m 10,5 km/h (2 Bft) 91,49 %
01.03.2017 23:02 5,9 C 6,1 C 4,4 C 97 % 15 lf 996,5 hPa 0,0 l/m 0 min 2 min 0 W/m 8,4 km/h (2 Bft) 95,65 %
01.03.2017 23:04 5,9 C 6,1 C 4,4 C 97 % 15 lf 996,5 hPa 0,0 l/m 0 min 2 min 0 W/m 6,3 km/h (2 Bft) 95,74 %
01.03.2017 23:06 5,9 C 6,1 C 5,0 C 97 % 15 lf 996,5 hPa 0,0 l/m 0 min 0 min 0 W/m 4,2 km/h (1 Bft) 95,74 %
01.03.2017 23:08 5,9 C 6,1 C 5,0 C 97 % 15 lf 996,5 hPa 0,0 l/m 0 min 0 min 0 W/m 6,3 km/h (2 Bft) 93,62 %
01.03.2017 23:10 5,9 C 6,1 C 5,0 C 97 % 15 lf 996,5 hPa 0,0 l/m 0 min 0 min 0 W/m 12,6 km/h (3 Bft) 91,49 %
01.03.2017 23:12 5,9 C 6,1 C 5,0 C 97 % 15 lf 996,5 hPa 0,0 l/m 0 min 0 min 0 W/m 8,4 km/h (2 Bft) 92,16 %
01.03.2017 23:14 5,9 C 6,1 C 5,0 C 97 % 15 lf 996,5 hPa 0,0 l/m 0 min 0 min 0 W/m 12,6 km/h (3 Bft) 95,74 %
01.03.2017 23:16 5,9 C 6,1 C 5,0 C 97 % 15 lf 996,5 hPa 0,0 l/m 0 min 0 min 0 W/m 6,3 km/h (2 Bft) 91,43 %
01.03.2017 23:18 6,0 C 6,1 C 5,0 C 97 % 15 lf 996,6 hPa 0,0 l/m 0 min 0 min 0 W/m 6,3 km/h (2 Bft) 91,49 %
01.03.2017 23:20 6,0 C 6,1 C 5,0 C 97 % 15 lf 996,6 hPa 0,0 l/m 0 min 0 min 0 W/m 8,4 km/h (2 Bft) 93,62 %
01.03.2017 23:22 6,0 C 6,1 C 5,0 C 97 % 15 lf 996,6 hPa 0,0 l/m 0 min 0 min 0 W/m 6,3 km/h (2 Bft) 97,83 %
01.03.2017 23:24 6,1 C 6,1 C 5,0 C 97 % 15 lf 996,6 hPa 0,0 l/m 0 min 0 min 0 W/m 6,3 km/h (2 Bft) 97,87 %
01.03.2017 23:26 6,1 C 6,1 C 5,0 C 97 % 15 lf 996,6 hPa 0,0 l/m 0 min 0 min 0 W/m 8,4 km/h (2 Bft) 95,74 %
01.03.2017 23:28 6,1 C 6,1 C 5,0 C 97 % 15 lf 996,6 hPa 0,0 l/m 0 min 0 min 0 W/m 6,3 km/h (2 Bft) 97,87 %
01.03.2017 23:30 6,1 C 6,1 C 5,0 C 97 % 15 lf 996,6 hPa 0,0 l/m 0 min 0 min 0 W/m 8,4 km/h (2 Bft) 97,87 %
01.03.2017 23:32 6,1 C 6,1 C 5,0 C 97 % 15 lf 996,5 hPa 0,0 l/m 0 min 0 min 0 W/m 10,5 km/h (2 Bft) 100,00 %
01.03.2017 23:34 6,1 C 6,1 C 5,0 C 97 % 15 lf 996,6 hPa 0,0 l/m 0 min 0 min 0 W/m 8,4 km/h (2 Bft) 100,00 %
01.03.2017 23:36 6,2 C 6,1 C 5,0 C 97 % 15 lf 996,6 hPa 0,0 l/m 0 min 0 min 0 W/m 10,5 km/h (2 Bft) 100,00 %
01.03.2017 23:38 6,2 C 6,1 C 5,0 C 97 % 15 lf 996,5 hPa 0,0 l/m 0 min 2 min 0 W/m 8,4 km/h (2 Bft) 95,74 %
01.03.2017 23:40 6,2 C 6,7 C 5,0 C 97 % 15 lf 996,5 hPa 0,0 l/m 0 min 2 min 0 W/m 6,3 km/h (2 Bft) 95,74 %
01.03.2017 23:42 6,2 C 6,7 C 5,0 C 97 % 15 lf 996,5 hPa 0,0 l/m 0 min 2 min 0 W/m 4,2 km/h (1 Bft) 100,00 %
01.03.2017 23:44 6,2 C 6,7 C 5,0 C 97 % 15 lf 996,5 hPa 0,2 l/m 0 min 2 min 0 W/m 10,5 km/h (2 Bft) 93,48 %
01.03.2017 23:46 6,3 C 6,7 C 5,0 C 97 % 15 lf 996,5 hPa 0,0 l/m 0 min 0 min 0 W/m 10,5 km/h (2 Bft) 95,74 %
01.03.2017 23:48 6,3 C 6,7 C 5,6 C 97 % 15 lf 996,5 hPa 0,0 l/m 0 min 0 min 0 W/m 12,6 km/h (3 Bft) 95,74 %
01.03.2017 23:50 6,4 C 6,7 C 5,6 C 97 % 15 lf 996,5 hPa 0,0 l/m 0 min 0 min 0 W/m 20,9 km/h (4 Bft) 97,87 %
01.03.2017 23:52 6,6 C 7,2 C 5,6 C 97 % 15 lf 996,5 hPa 0,0 l/m 0 min 2 min 0 W/m 31,4 km/h (5 Bft) 95,74 %
01.03.2017 23:54 6,7 C 7,2 C 6,1 C 97 % 15 lf 996,5 hPa 0,0 l/m 0 min 2 min 0 W/m 23,0 km/h (4 Bft) 95,74 %
01.03.2017 23:56 6,8 C 7,2 C 6,1 C 97 % 15 lf 996,6 hPa 0,0 l/m 0 min 2 min 0 W/m 27,2 km/h (4 Bft) 97,83 %
01.03.2017 23:58 7,0 C 7,2 C 6,1 C 97 % 15 lf 996,6 hPa 0,0 l/m 0 min 2 min 0 W/m 25,1 km/h (4 Bft) 95,74 %
_ Min-Zeit 01:14 00:08 00:10 11:42 09:16 04:14 - - - - 01:48 08:20
Minimum _ 1,7 C 1,7 C 0,6 C 75 % 0 lf 994,4 hPa - - - - 4,2 km/h (1 Bft) 85,11 %
_ Max-Zeit 16:12 10:46 11:08 03:26 00:00 13:56 00:00 08:14 00:00 10:50 07:14 00:02
Maximum _ 8,3 C 15,6 C 8,9 C 97 % 15 lf 1001,4 hPa 0,2 l/m 2 min 2 min 578 W/m 48,1 km/h
W-SW (6 Bft)
100,00 %
Durchschnitt _ 5,9 C 6,6 C 4,7 C 90 % 9 lf 998,1 hPa #5,4 l/m #3:52 h #10:59 h 152 W/m 21,3 km/h (4 Bft) 96,00 %
© 2017 W. Hausmann